DW7984 Weather Reports


Display with metric or nautical units.
time (UTC)temp
F
wind
direction
speed
MPH
gust
MPH
rain 1hr
in
rain 24hr
in
rain mn
in
humidity
%
barometer
mb
20260506050654 44 159 2.0 5.0 0.00 0.31 0.00 92 1046.5
20260506050643 44 160 2.0 5.0 0.00 0.31 0.00 92 1046.5
20260506050633 44 159 2.0 5.0 0.00 0.31 0.00 92 1046.5
20260506050613 44 160 2.0 5.0 0.00 0.31 0.00 92 1046.5
20260506050603 44 159 2.0 5.0 0.00 0.31 0.00 92 1046.5
20260506050555 44 159 2.0 5.0 0.00 0.31 0.00 92 1046.4
20260506050106 44 160 2.0 5.0 0.00 0.31 0.00 92 1046.5
20260506045005 45 158 2.0 6.0 0.00 0.31 0.00 92 1046.3
20260506044919 45 160 2.0 6.0 0.00 0.31 0.00 92 1046.3
20260506044837 45 159 2.0 6.0 0.00 0.31 0.00 92 1046.4
20260506044830 45 160 2.0 6.0 0.00 0.31 0.00 92 1046.3
20260506044818 45 159 2.0 6.0 0.00 0.31 0.00 92 1046.3
20260506044808 45 159 2.0 6.0 0.00 0.31 0.00 92 1046.3
20260506044538 45 158 2.0 6.0 0.00 0.31 0.00 92 1046.3
20260506044234 45 158 2.0 6.0 0.00 0.31 0.00 92 1046.2
20260506044226 45 159 2.0 6.0 0.00 0.31 0.00 92 1046.2
20260506044203 45 159 3.0 6.0 0.00 0.31 0.00 92 1046.2
20260506044153 45 158 3.0 6.0 0.00 0.31 0.00 92 1046.2
20260506043610 45 158 3.0 6.0 0.00 0.31 0.00 92 1046.2
20260506043538 45 156 3.0 6.0 0.00 0.31 0.00 92 1046.2
20260506043529 45 156 3.0 6.0 0.00 0.31 0.00 92 1046.2
20260506043204 44 155 3.0 6.0 0.00 0.31 0.00 92 1046.2
20260506043105 44 155 3.0 6.0 0.00 0.31 0.00 92 1046.2
20260506043046 44 156 3.0 6.0 0.00 0.31 0.00 92 1046.2
20260506043037 44 155 3.0 6.0 0.00 0.31 0.00 92 1046.2
20260506043029 44 155 3.0 6.0 0.00 0.31 0.00 92 1046.2
20260506042704 45 149 3.0 5.0 0.00 0.31 0.00 92 1046.2
20260506042604 45 149 3.0 5.0 0.00 0.31 0.00 92 1046.2
20260506042509 45 149 3.0 5.0 0.00 0.31 0.00 92 1046.1
20260506042500 45 149 3.0 5.0 0.00 0.31 0.00 92 1046.1
20260506042404 45 149 3.0 5.0 0.00 0.31 0.00 92 1046.1
20260506042305 45 149 3.0 5.0 0.00 0.31 0.00 92 1046.1
20260506042204 45 148 3.0 5.0 0.00 0.31 0.00 92 1046.1
20260506042105 45 149 3.0 6.0 0.00 0.31 0.00 92 1046.1
20260506042011 45 149 3.0 6.0 0.00 0.31 0.00 92 1046.1
20260506042001 45 149 3.0 6.0 0.00 0.31 0.00 92 1046.1
20260506041903 45 149 3.0 6.0 0.00 0.31 0.00 92 1046.1
20260506041803 45 149 3.0 6.0 0.00 0.31 0.00 92 1046.1
20260506041704 45 149 3.0 6.0 0.00 0.31 0.00 92 1046.1
20260506041645 45 149 3.0 6.0 0.00 0.31 0.00 92 1046.1
20260506041639 45 149 3.0 6.0 0.00 0.31 0.00 92 1046.1
20260506041629 45 149 3.0 6.0 0.00 0.31 0.00 92 1046.1
20260506041303 45 149 3.0 6.0 0.00 0.31 0.00 92 1046.1
20260506041203 45 149 3.0 6.0 0.00 0.31 0.00 92 1046.2
20260506041104 45 147 3.0 5.0 0.00 0.31 0.00 92 1046.2
20260506041029 45 147 3.0 5.0 0.00 0.31 0.00 91 1046.1
20260506041017 45 147 3.0 5.0 0.00 0.31 0.00 91 1046.1
20260506040956 45 147 3.0 5.0 0.00 0.31 0.00 91 1046.2
20260506040948 45 147 3.0 5.0 0.00 0.31 0.00 91 1046.1
20260506040940 45 147 3.0 5.0 0.00 0.31 0.00 91 1046.1
20260506040930 45 147 3.0 4.0 0.00 0.31 0.00 92 1046.2
20260506040918 45 146 3.0 4.0 0.00 0.31 0.00 92 1046.1
20260506040637 45 144 3.0 4.0 0.00 0.31 0.00 91 1046.1
20260506040058 45 143 3.0 4.0 0.00 0.31 0.00 91 1046.1
20260506040036 45 143 3.0 4.0 0.00 0.31 0.00 91 1046.1
20260506040028 45 141 2.0 4.0 0.00 0.31 0.00 91 1046.1
20260506035656 45 139 2.0 4.0 0.00 0.31 0.00 91 1046.0
20260506035556 45 139 2.0 4.0 0.00 0.31 0.00 91 1046.1
20260506035456 45 140 2.0 4.0 0.00 0.31 0.00 91 1046.1
20260506035402 45 140 2.0 4.0 0.00 0.31 0.00 91 1046.1
20260506035352 45 139 2.0 4.0 0.00 0.31 0.00 91 1046.1
20260506035343 45 139 2.0 3.0 0.00 0.31 0.00 91 1046.1
20260506035331 45 139 2.0 3.0 0.00 0.31 0.00 91 1046.0
20260506035310 45 139 1.0 3.0 0.00 0.31 0.00 91 1046.0
20260506035305 45 139 1.0 3.0 0.00 0.31 0.00 91 1046.1
20260506035254 45 139 2.0 3.0 0.00 0.31 0.00 91 1046.1
20260506035247 45 139 2.0 3.0 0.00 0.31 0.00 91 1046.1
20260506035007 45 139 2.0 3.0 0.00 0.31 0.00 91 1046.1
20260506034959 45 139 2.0 3.0 0.00 0.31 0.00 91 1046.1
20260506034734 45 139 2.0 3.0 0.00 0.31 0.00 91 1046.0
20260506034726 45 139 2.0 3.0 0.00 0.31 0.00 91 1046.0
20260506034715 45 139 2.0 3.0 0.00 0.31 0.00 91 1046.0
20260506034449 45 139 2.0 3.0 0.00 0.31 0.00 91 1046.0
20260506034435 45 139 2.0 3.0 0.00 0.31 0.00 91 1046.0
20260506033725 45 139 1.0 3.0 0.00 0.31 0.00 91 1046.0
20260506033714 45 139 1.0 3.0 0.00 0.31 0.00 91 1046.0
20260506033702 45 139 1.0 3.0 0.00 0.31 0.00 91 1046.0
20260506033439 45 138 1.0 3.0 0.00 0.31 0.00 91 1045.9
20260506032842 45 139 0.0 2.0 0.00 0.31 0.00 91 1045.9
20260506032743 46 139 0.0 2.0 0.00 0.31 0.00 91 1045.9
20260506032721 46 139 0.0 2.0 0.00 0.31 0.00 91 1045.9
20260506032711 46 139 0.0 2.0 0.00 0.31 0.00 91 1045.8
20260506032701 46 139 0.0 2.0 0.00 0.31 0.00 91 1045.8
20260506032342 46 139 0.0 2.0 0.00 0.31 0.00 91 1045.9
20260506032242 46 139 0.0 2.0 0.00 0.31 0.00 91 1045.9
20260506032226 46 139 1.0 2.0 0.00 0.31 0.00 91 1045.9
20260506032218 46 139 1.0 3.0 0.00 0.31 0.00 91 1045.8
20260506032209 46 139 1.0 4.0 0.00 0.31 0.00 91 1045.8
20260506031838 46 139 1.0 4.0 0.00 0.31 0.00 91 1045.8
20260506031736 46 139 1.0 4.0 0.00 0.31 0.00 90 1045.8
20260506031657 46 139 1.0 4.0 0.00 0.31 0.00 90 1045.8
20260506031648 46 139 1.0 4.0 0.00 0.31 0.00 90 1045.8
20260506031624 46 139 1.0 4.0 0.00 0.31 0.00 90 1045.8
20260506031613 46 139 1.0 4.0 0.00 0.31 0.00 90 1045.8
20260506031032 46 139 0.0 4.0 0.00 0.31 0.00 90 1045.8
20260506031003 46 139 0.0 4.0 0.00 0.31 0.00 90 1045.8
20260506030931 46 139 0.0 4.0 0.00 0.31 0.00 90 1045.8
20260506030832 46 137 0.0 0.0 0.00 0.31 0.00 90 1045.7
20260506030731 46 137 0.0 0.0 0.00 0.31 0.00 90 1045.7
20260506030631 46 138 0.0 0.0 0.00 0.31 0.00 90 1045.8
20260506030531 46 137 0.0 0.0 0.00 0.31 0.00 90 1045.8
20260506030519 46 139 0.0 0.0 0.00 0.31 0.00 90 1045.8
20260506030510 46 137 0.0 0.0 0.00 0.31 0.00 90 1045.8
20260506030501 46 137 0.0 0.0 0.00 0.31 0.00 90 1045.8
20260506030130 47 138 0.0 0.0 0.00 0.31 0.00 90 1045.8
20260506030030 47 137 0.0 0.0 0.00 0.31 0.00 90 1045.8
20260506025929 47 137 0.0 0.0 0.00 0.31 0.00 90 1045.8
20260506025828 47 137 0.0 0.0 0.00 0.31 0.00 90 1045.8
20260506025728 47 138 0.0 0.0 0.00 0.31 0.00 90 1045.8
20260506025630 47 138 0.0 0.0 0.00 0.31 0.00 90 1045.7
20260506025526 47 137 0.0 0.0 0.00 0.31 0.00 90 1045.7
20260506025456 47 137 0.0 0.0 0.00 0.31 0.00 90 1045.7
20260506025426 47 138 0.0 0.0 0.00 0.31 0.00 90 1045.7
20260506025327 47 137 0.0 0.0 0.00 0.31 0.00 89 1045.7
20260506025224 47 138 0.0 0.0 0.00 0.31 0.00 89 1045.7
20260506025124 47 137 0.0 0.0 0.00 0.31 0.00 89 1045.7
20260506025028 47 137 0.0 0.0 0.00 0.31 0.00 89 1045.7
20260506025018 47 137 0.0 0.0 0.00 0.31 0.00 89 1045.7
20260506025009 47 138 0.0 0.0 0.00 0.31 0.00 89 1045.7
20260506024956 47 137 0.0 0.0 0.00 0.31 0.00 89 1045.6
20260506024730 47 137 0.0 0.0 0.00 0.31 0.00 89 1045.6
20260506024718 47 137 0.0 0.0 0.00 0.31 0.00 89 1045.6
20260506024419 47 137 0.0 0.0 0.00 0.31 0.00 89 1045.6
20260506024344 47 137 0.0 0.0 0.00 0.31 0.00 89 1045.6
20260506024336 48 137 0.0 0.0 0.00 0.31 0.00 89 1045.6
20260506024018 48 137 0.0 0.0 0.00 0.31 0.00 89 1045.6
20260506023959 48 138 0.0 0.0 0.00 0.31 0.00 89 1045.6
20260506023916 48 137 0.0 0.0 0.00 0.31 0.00 88 1045.6
20260506023835 48 137 0.0 0.0 0.00 0.31 0.00 88 1045.6
20260506023824 48 137 0.0 0.0 0.00 0.31 0.00 88 1045.6
20260506023816 48 137 0.0 0.0 0.00 0.31 0.00 88 1045.6
20260506023544 48 137 0.0 0.0 0.00 0.31 0.00 88 1045.6
20260506023537 48 137 0.0 2.0 0.00 0.31 0.00 88 1045.6
20260506023527 48 138 0.0 2.0 0.00 0.31 0.00 88 1045.6
20260506023516 48 137 0.0 2.0 0.00 0.31 0.00 88 1045.6
20260506023507 48 138 0.0 2.0 0.00 0.31 0.00 88 1045.7
20260506023452 48 137 0.0 2.0 0.00 0.31 0.00 87 1045.6
20260506023442 48 137 0.0 2.0 0.00 0.31 0.00 87 1045.6
20260506023435 49 138 0.0 2.0 0.00 0.31 0.00 87 1045.6
20260506023156 49 137 1.0 3.0 0.00 0.31 0.00 88 1045.6
20260506022449 49 137 2.0 4.0 0.00 0.31 0.00 87 1045.6
20260506022441 49 139 2.0 4.0 0.00 0.31 0.00 87 1045.6
20260506022117 49 137 2.0 4.0 0.00 0.31 0.00 87 1045.6
20260506022024 49 137 2.0 4.0 0.00 0.31 0.00 87 1045.6
20260506021957 49 137 2.0 4.0 0.00 0.31 0.00 87 1045.6
20260506021916 49 137 2.0 4.0 0.00 0.31 0.00 87 1045.6
20260506021816 49 137 2.0 4.0 0.00 0.31 0.00 87 1045.6
20260506021717 49 137 2.0 4.0 0.00 0.31 0.00 87 1045.6
20260506021656 49 137 2.0 4.0 0.00 0.31 0.00 87 1045.6
20260506021646 49 138 2.0 5.0 0.00 0.31 0.00 87 1045.6
20260506021637 49 138 2.0 5.0 0.00 0.31 0.00 87 1045.6
20260506021312 49 138 2.0 5.0 0.00 0.31 0.00 87 1045.6
20260506021212 49 138 2.0 5.0 0.00 0.31 0.00 87 1045.6
20260506021112 49 138 2.0 5.0 0.00 0.31 0.00 86 1045.6
20260506021053 49 138 2.0 5.0 0.00 0.31 0.00 86 1045.6
20260506021044 49 138 2.0 5.0 0.00 0.31 0.00 86 1045.6
20260506021037 49 138 2.0 5.0 0.00 0.31 0.00 86 1045.5
20260506020711 49 138 2.0 5.0 0.00 0.31 0.00 86 1045.6
20260506020613 49 138 2.0 5.0 0.00 0.31 0.00 85 1045.6
20260506020512 50 281 2.0 4.0 0.00 0.31 0.00 85 1045.5
20260506020457 50 281 2.0 4.0 0.00 0.31 0.00 85 1045.5
20260506020412 50 280 2.0 8.0 0.00 0.31 0.00 85 1045.5
20260506020312 50 281 2.0 8.0 0.00 0.31 0.00 85 1045.5
20260506020212 50 280 2.0 8.0 0.00 0.31 0.00 85 1045.5
20260506020147 50 280 2.0 8.0 0.00 0.31 0.00 85 1045.5
20260506020138 50 281 2.0 8.0 0.00 0.31 0.00 84 1045.5
20260506020128 50 282 2.0 8.0 0.00 0.31 0.00 84 1045.5
20260506020117 50 282 2.0 8.0 0.00 0.31 0.00 84 1045.4
20260506015847 50 281 1.0 8.0 0.00 0.31 0.00 84 1045.4
20260506015512 50 281 1.0 8.0 0.00 0.31 0.00 84 1045.4
20260506015456 50 282 1.0 8.0 0.00 0.31 0.00 84 1045.4
20260506015414 50 292 1.0 5.0 0.00 0.31 0.00 84 1045.4
20260506015312 50 290 1.0 5.0 0.00 0.31 0.00 85 1045.4
20260506015212 50 289 1.0 9.0 0.00 0.31 0.00 85 1045.4
20260506015112 50 289 1.0 9.0 0.00 0.31 0.00 85 1045.4
20260506015012 50 290 1.0 9.0 0.00 0.31 0.00 85 1045.4
20260506014957 50 289 1.0 9.0 0.00 0.31 0.00 85 1045.4
20260506014912 50 290 1.0 9.0 0.00 0.31 0.00 85 1045.4
20260506014845 50 289 2.0 9.0 0.00 0.31 0.00 85 1045.4
20260506014838 50 289 2.0 9.0 0.00 0.31 0.00 85 1045.4
20260506014512 50 289 2.0 9.0 0.00 0.31 0.00 85 1045.4
20260506014457 50 289 2.0 9.0 0.00 0.31 0.00 85 1045.4
20260506014413 50 289 3.0 9.0 0.00 0.31 0.00 85 1045.4
20260506014308 50 289 3.0 10.0 0.00 0.31 0.00 85 1045.4
20260506014209 50 292 3.0 10.0 0.00 0.31 0.00 85 1045.4
20260506014110 50 292 3.0 10.0 0.00 0.31 0.00 85 1045.2
20260506014009 50 292 3.0 10.0 0.00 0.31 0.00 85 1045.2
20260506013956 50 292 3.0 10.0 0.00 0.31 0.00 85 1045.2
20260506013908 50 292 4.0 10.0 0.00 0.31 0.00 86 1045.2
20260506013807 50 292 4.0 10.0 0.00 0.31 0.00 86 1045.2
20260506013708 50 292 4.0 10.0 0.00 0.31 0.00 86 1045.2
20260506013607 50 292 4.0 10.0 0.00 0.31 0.00 86 1045.2
20260506013508 50 290 4.0 10.0 0.00 0.31 0.00 87 1045.2
20260506013457 50 291 4.0 10.0 0.00 0.31 0.00 87 1045.2
20260506013408 50 300 4.0 10.0 0.00 0.31 0.00 87 1045.2
20260506013308 50 317 4.0 8.0 0.00 0.31 0.00 87 1045.1
20260506013208 50 318 3.0 8.0 0.00 0.31 0.00 88 1045.2
20260506013150 49 321 3.0 8.0 0.00 0.31 0.00 88 1045.2
20260506013141 49 320 3.0 8.0 0.00 0.31 0.00 89 1045.2
20260506013130 49 321 3.0 8.0 0.00 0.31 0.00 89 1045.2
20260506012808 49 323 3.0 8.0 0.00 0.31 0.00 89 1045.2
20260506012709 49 304 3.0 7.0 0.00 0.31 0.00 89 1045.1
20260506012608 49 305 2.0 7.0 0.00 0.31 0.00 90 1045.2
20260506012508 49 295 2.0 7.0 0.00 0.31 0.00 90 1045.2
20260506012458 49 295 2.0 7.0 0.00 0.31 0.00 90 1045.2
20260506012407 49 295 2.0 5.0 0.00 0.31 0.00 90 1045.2
20260506012308 49 295 1.0 5.0 0.00 0.31 0.00 90 1045.1
20260506012241 49 295 1.0 5.0 0.00 0.31 0.00 90 1045.1
20260506012233 49 295 1.0 5.0 0.00 0.31 0.00 90 1045.2
20260506011957 49 293 1.0 5.0 0.00 0.31 0.00 90 1045.2
20260506011908 49 295 1.0 3.0 0.00 0.31 0.00 90 1045.1
20260506011809 49 295 1.0 2.0 0.00 0.31 0.00 90 1045.1
20260506011707 49 295 1.0 2.0 0.00 0.31 0.00 90 1045.2
20260506011608 49 295 1.0 2.0 0.00 0.31 0.00 90 1045.2
20260506011508 49 295 1.0 2.0 0.00 0.31 0.00 90 1045.1
20260506011456 49 295 1.0 2.0 0.00 0.31 0.00 90 1045.1
20260506011408 49 295 1.0 2.0 0.00 0.31 0.00 90 1045.2
20260506011307 49 359 1.0 2.0 0.00 0.31 0.00 90 1045.2
20260506011208 49 295 1.0 2.0 0.00 0.31 0.00 90 1045.2
20260506011149 49 295 1.0 2.0 0.00 0.31 0.00 90 1045.2
20260506011139 49 295 1.0 3.0 0.00 0.31 0.00 90 1045.4
20260506011130 49 295 1.0 3.0 0.00 0.31 0.00 90 1045.4
20260506010804 49 295 1.0 3.0 0.00 0.31 0.00 90 1045.4
20260506010704 49 295 1.0 3.0 0.00 0.31 0.00 90 1045.4
20260506010606 49 295 1.0 3.0 0.00 0.31 0.00 91 1045.4
20260506010507 49 295 1.0 4.0 0.00 0.31 0.00 91 1045.4
20260506010456 49 295 1.0 4.0 0.00 0.31 0.00 91 1045.4
20260506010405 49 295 1.0 9.0 0.00 0.31 0.00 91 1045.4
20260506010304 49 294 1.0 9.0 0.00 0.31 0.00 91 1045.4
20260506010227 49 294 1.0 9.0 0.00 0.31 0.00 91 1045.4
20260506010219 49 295 2.0 9.0 0.00 0.31 0.00 92 1045.4
20260506010206 49 295 2.0 9.0 0.00 0.31 0.00 92 1045.4
20260506010157 49 294 2.0 9.0 0.00 0.31 0.00 92 1045.4
20260506010145 49 295 2.0 9.0 0.00 0.31 0.00 92 1045.4
20260506005605 49 294 3.0 9.0 0.00 0.31 0.00 93 1045.5
20260506005506 49 299 2.0 9.0 0.00 0.31 0.00 93 1045.4
20260506005457 49 300 2.0 9.0 0.00 0.31 0.00 93 1045.4
20260506005405 49 273 2.0 9.0 0.00 0.31 0.00 93 1045.4
20260506005336 49 272 2.0 9.0 0.00 0.31 0.00 93 1045.5
20260506005329 49 272 2.0 9.0 0.00 0.31 0.00 93 1045.4
20260506005005 48 273 3.0 9.0 0.00 0.31 0.00 93 1045.4
20260506004956 48 272 3.0 9.0 0.00 0.31 0.00 93 1045.4
20260506004923 48 272 3.0 9.0 0.00 0.31 0.00 93 1045.4
20260506004915 48 306 3.0 8.0 0.00 0.31 0.00 93 1045.4
20260506004857 48 258 3.0 9.0 0.00 0.31 0.00 93 1045.5
20260506004620 48 258 3.0 9.0 0.00 0.31 0.00 93 1045.5
20260506004253 47 258 2.0 9.0 0.00 0.31 0.00 93 1045.5
20260506004153 47 258 2.0 9.0 0.00 0.31 0.00 93 1045.5
20260506004049 47 294 2.0 9.0 0.00 0.31 0.00 93 1045.5
20260506004001 47 294 1.0 9.0 0.00 0.31 0.00 93 1045.5
20260506003948 47 293 1.0 9.0 0.00 0.31 0.00 93 1045.5
20260506003848 47 290 1.0 9.0 0.00 0.31 0.00 93 1045.5
20260506003748 47 287 1.0 9.0 0.00 0.31 0.00 93 1045.5
20260506003647 47 276 1.0 3.0 0.00 0.31 0.00 93 1045.5
20260506003623 47 275 1.0 3.0 0.00 0.31 0.00 93 1045.5
20260506003612 47 275 1.0 3.0 0.00 0.31 0.00 93 1045.5
20260506003605 47 276 1.0 3.0 0.00 0.31 0.00 93 1045.4
20260506003242 47 275 1.0 3.0 0.00 0.31 0.00 93 1045.5
20260506003146 47 276 1.0 3.0 0.00 0.31 0.00 93 1045.5
20260506003136 47 275 1.0 4.0 0.00 0.31 0.00 93 1045.5
20260506003120 47 275 1.0 4.0 0.00 0.31 0.00 93 1045.5
20260506003106 47 275 1.0 4.0 0.00 0.31 0.00 93 1045.5
20260506003100 47 276 1.0 4.0 0.00 0.31 0.00 93 1045.5
20260506002831 47 275 1.0 4.0 0.00 0.31 0.00 93 1045.6
20260506002820 47 276 1.0 4.0 0.00 0.31 0.00 93 1045.6
20260506002553 47 275 0.0 4.0 0.00 0.31 0.00 93 1045.6
20260506002531 47 275 0.0 4.0 0.00 0.31 0.00 93 1045.6
20260506002301 47 276 0.0 1.0 0.00 0.31 0.00 92 1045.6
20260506002253 47 276 0.0 2.0 0.00 0.31 0.00 92 1045.6
20260506002023 47 275 1.0 2.0 0.00 0.31 0.00 92 1045.7
20260506002008 47 275 1.0 3.0 0.00 0.31 0.00 92 1045.6
20260506002000 47 276 1.0 3.0 0.00 0.31 0.00 93 1045.7
20260506001952 47 277 1.0 3.0 0.00 0.31 0.00 93 1045.7
20260506001728 47 275 1.0 3.0 0.00 0.31 0.00 93 1045.7
20260506001719 47 276 1.0 3.0 0.00 0.31 0.00 93 1045.7
20260506001706 47 276 1.0 3.0 0.00 0.31 0.00 93 1045.7
20260506001440 47 276 1.0 3.0 0.00 0.31 0.00 93 1045.8
20260506001431 47 276 1.0 3.0 0.00 0.31 0.00 93 1045.8
20260506001204 47 276 1.0 3.0 0.00 0.31 0.00 93 1045.8
20260506001153 47 276 1.0 2.0 0.00 0.31 0.00 93 1045.8
20260506000924 47 276 0.0 2.0 0.00 0.31 0.00 92 1045.8
20260506000913 47 275 1.0 2.0 0.00 0.31 0.00 92 1045.9
20260506000652 47 276 0.0 2.0 0.00 0.31 0.00 92 1045.9
20260506000204 48 275 1.0 3.0 0.00 0.31 0.00 92 1045.9
20260505235916 48 275 1.0 3.0 0.00 0.31 0.00 92 1045.9
20260505235833 48 276 1.0 3.0 0.00 0.31 0.00 92 1046.0
20260505235827 48 276 1.0 3.0 0.00 0.31 0.00 92 1046.0
20260505235508 48 276 1.0 3.0 0.00 0.31 0.00 93 1046.0
20260505235450 48 276 1.0 3.0 0.00 0.31 0.00 93 1046.0
20260505235443 48 275 1.0 3.0 0.00 0.31 0.00 93 1046.0
20260505235104 48 276 1.0 3.0 0.00 0.31 0.00 93 1046.0
20260505235003 48 276 1.0 3.0 0.00 0.31 0.00 93 1046.0
20260505234941 48 276 1.0 3.0 0.00 0.31 0.00 93 1046.0
20260505234903 48 275 1.0 3.0 0.00 0.31 0.00 93 1046.0
20260505234803 48 276 1.0 3.0 0.00 0.31 0.00 93 1046.0
20260505234704 48 275 2.0 3.0 0.00 0.31 0.00 93 1046.0
20260505234604 48 276 2.0 3.0 0.00 0.31 0.00 93 1046.0
20260505234503 48 276 2.0 3.0 0.00 0.31 0.00 93 1046.0
20260505234440 48 275 2.0 3.0 0.00 0.31 0.00 93 1046.1
20260505234404 48 275 2.0 3.0 0.00 0.31 0.00 92 1046.1
20260505234303 48 276 2.0 3.0 0.00 0.31 0.00 92 1046.0
20260505234219 48 276 2.0 3.0 0.00 0.31 0.00 92 1046.0
20260505234211 48 276 2.0 3.0 0.00 0.31 0.00 92 1046.1
20260505234159 48 275 2.0 3.0 0.00 0.31 0.00 92 1046.1
20260505233903 48 276 2.0 3.0 0.00 0.31 0.00 92 1046.1
20260505233803 48 275 2.0 3.0 0.00 0.31 0.00 92 1046.1
20260505233705 48 276 1.0 3.0 0.00 0.31 0.00 92 1046.1
20260505233604 48 275 1.0 3.0 0.00 0.31 0.00 92 1046.1
20260505233504 48 275 1.0 3.0 0.00 0.31 0.00 92 1046.1
20260505233436 48 276 1.0 3.0 0.00 0.31 0.00 92 1046.1
20260505233404 48 276 1.0 3.0 0.00 0.31 0.00 92 1046.1
20260505233304 48 275 1.0 3.0 0.00 0.31 0.00 93 1046.1
20260505233204 49 275 1.0 3.0 0.00 0.31 0.00 93 1046.1
20260505233109 49 276 1.0 2.0 0.00 0.31 0.00 93 1046.1
20260505233101 49 276 1.0 3.0 0.00 0.31 0.00 93 1046.1
20260505233045 49 276 1.0 3.0 0.00 0.31 0.00 93 1046.1
20260505233029 49 276 0.0 3.0 0.00 0.31 0.00 93 1046.0
20260505233020 49 276 0.0 3.0 0.00 0.31 0.00 93 1046.0
20260505232526 49 276 1.0 3.0 0.00 0.31 0.00 93 1046.0
20260505232518 49 276 1.0 3.0 0.00 0.31 0.00 93 1046.0
20260505232505 49 276 1.0 3.0 0.00 0.31 0.00 93 1046.0
20260505232455 49 276 1.0 4.0 0.00 0.31 0.00 92 1046.1
20260505232447 49 276 1.0 4.0 0.00 0.31 0.00 92 1046.0
20260505232435 49 276 1.0 4.0 0.00 0.31 0.00 92 1046.0
20260505232155 49 275 1.0 4.0 0.00 0.31 0.00 92 1046.0
20260505232146 49 276 1.0 4.0 0.00 0.31 0.00 92 1046.0
20260505231920 49 275 1.0 4.0 0.00 0.31 0.00 92 1045.9
20260505231906 49 275 1.0 4.0 0.00 0.31 0.00 92 1045.9
20260505231852 49 276 1.0 4.0 0.00 0.31 0.00 92 1046.0
20260505231052 49 276 1.0 2.0 0.00 0.31 0.00 93 1045.9
20260505230952 49 275 1.0 2.0 0.00 0.31 0.00 92 1045.9
20260505230933 49 276 1.0 2.0 0.00 0.31 0.00 92 1045.9
20260505230852 49 276 1.0 2.0 0.00 0.31 0.00 92 1045.9
20260505230752 49 275 1.0 2.0 0.00 0.31 0.00 92 1045.9
20260505230653 49 276 1.0 2.0 0.00 0.31 0.00 93 1045.9
20260505230550 49 275 1.0 2.0 0.00 0.31 0.00 93 1046.0
20260505230449 49 275 1.0 2.0 0.00 0.31 0.00 93 1045.9
20260505230432 49 276 1.0 2.0 0.00 0.31 0.00 93 1045.9
20260505230348 49 276 1.0 2.0 0.00 0.31 0.00 93 1045.9
20260505230246 49 275 1.0 2.0 0.00 0.31 0.00 93 1045.9
20260505230146 49 275 1.0 3.0 0.00 0.31 0.00 93 1045.9
20260505230050 49 276 1.0 3.0 0.00 0.31 0.00 93 1045.9
20260505230040 49 276 1.0 3.0 0.00 0.31 0.00 93 1045.9
20260505230031 49 275 1.0 3.0 0.00 0.31 0.00 93 1045.9
20260505230023 49 276 1.0 3.0 0.00 0.31 0.00 93 1045.9
20260505230012 49 275 2.0 3.0 0.00 0.31 0.00 93 1045.9
20260505230004 49 275 2.0 4.0 0.00 0.31 0.00 93 1045.9
20260505225947 49 276 2.0 4.0 0.00 0.31 0.00 93 1045.9
20260505225722 49 276 3.0 6.0 0.00 0.31 0.00 93 1045.9
20260505225225 49 274 3.0 6.0 0.00 0.31 0.00 93 1045.8
20260505225217 49 275 3.0 6.0 0.00 0.31 0.00 93 1045.9
20260505224932 49 276 3.0 6.0 0.00 0.31 0.00 93 1045.9
20260505224905 49 275 3.0 6.0 0.00 0.31 0.00 93 1045.9
20260505224856 49 276 2.0 6.0 0.00 0.31 0.00 93 1046.0
20260505224534 49 275 2.0 6.0 0.00 0.31 0.00 93 1045.9
20260505224441 49 275 1.0 6.0 0.00 0.31 0.00 93 1045.9
20260505224432 49 276 1.0 6.0 0.00 0.31 0.00 93 1045.9
20260505224334 49 275 1.0 4.0 0.00 0.31 0.00 93 1045.9
20260505224233 49 276 1.0 3.0 0.00 0.31 0.00 93 1045.9
20260505224140 49 275 1.0 3.0 0.00 0.31 0.00 93 1045.9
20260505224132 49 275 1.0 3.0 0.00 0.31 0.00 93 1045.8
20260505224117 49 276 1.0 3.0 0.00 0.31 0.00 93 1045.8
20260505224103 49 276 1.0 3.0 0.00 0.31 0.00 93 1045.8
20260505224053 49 276 1.0 3.0 0.00 0.31 0.00 93 1045.8
20260505223822 49 276 2.0 4.0 0.00 0.31 0.00 93 1045.8
20260505223558 49 275 2.0 4.0 0.00 0.31 0.00 93 1045.8
20260505223232 49 275 2.0 4.0 0.00 0.31 0.00 93 1045.8
20260505223132 49 276 2.0 4.0 0.00 0.31 0.00 93 1045.8
20260505223115 49 276 2.0 4.0 0.00 0.31 0.00 93 1045.8
20260505223059 49 275 2.0 4.0 0.00 0.31 0.00 92 1045.8
20260505222731 49 276 1.0 4.0 0.00 0.31 0.00 92 1045.8
20260505222631 49 275 1.0 4.0 0.00 0.31 0.00 92 1045.8
20260505222531 49 278 1.0 4.0 0.00 0.31 0.00 92 1045.8
20260505222436 49 276 1.0 3.0 0.00 0.31 0.00 92 1045.8
20260505222331 49 276 1.0 3.0 0.00 0.31 0.00 92 1045.9
20260505222232 49 275 1.0 3.0 0.00 0.31 0.00 92 1045.9
20260505222132 49 276 1.0 3.0 0.00 0.31 0.00 92 1045.9
20260505222031 49 276 0.0 3.0 0.00 0.31 0.00 92 1046.0
20260505221933 49 276 1.0 2.0 0.00 0.31 0.00 92 1046.0
20260505221833 49 276 0.0 2.0 0.00 0.31 0.00 92 1046.0
20260505221734 49 275 0.0 2.0 0.00 0.31 0.00 92 1046.0
20260505221630 49 276 0.0 2.0 0.00 0.31 0.00 92 1046.1
20260505221531 49 276 0.0 2.0 0.00 0.31 0.00 92 1046.1
20260505221432 49 275 0.0 2.0 0.00 0.31 0.00 92 1046.1
20260505221331 49 275 0.0 2.0 0.00 0.31 0.00 92 1046.1
20260505221230 49 275 0.0 2.0 0.00 0.31 0.00 92 1046.1
20260505221133 49 276 0.0 2.0 0.00 0.31 0.00 92 1046.2
20260505221031 49 276 0.0 2.0 0.00 0.31 0.00 92 1046.2
20260505220933 50 275 0.0 3.0 0.00 0.31 0.00 92 1046.2
20260505220846 50 275 1.0 3.0 0.00 0.31 0.00 92 1046.3
20260505220839 50 276 1.0 3.0 0.00 0.31 0.00 92 1046.3
20260505220826 50 275 1.0 3.0 0.00 0.31 0.00 92 1046.4
20260505220551 50 276 1.0 3.0 0.00 0.31 0.00 92 1046.4
20260505220226 50 276 2.0 3.0 0.00 0.31 0.00 92 1046.4
20260505220212 50 275 2.0 3.0 0.00 0.31 0.00 92 1046.5
20260505220153 50 275 2.0 3.0 0.00 0.31 0.00 92 1046.5
20260505215921 50 276 2.0 3.0 0.00 0.31 0.31 92 1046.6
20260505215821 50 276 2.0 4.0 0.00 0.31 0.31 92 1046.6
20260505215720 50 276 2.0 4.0 0.00 0.31 0.31 92 1046.6
20260505215617 50 276 2.0 4.0 0.00 0.31 0.31 92 1046.6
20260505215512 50 275 3.0 4.0 0.00 0.31 0.31 92 1046.6
20260505215411 50 275 3.0 4.0 0.00 0.31 0.31 92 1046.6
20260505215312 50 276 3.0 4.0 0.00 0.31 0.31 92 1046.6
20260505215211 50 276 3.0 4.0 0.00 0.31 0.31 92 1046.6
20260505215123 50 276 3.0 6.0 0.00 0.31 0.31 92 1046.6
20260505215057 50 275 3.0 6.0 0.00 0.31 0.31 92 1046.6
20260505215048 50 276 3.0 6.0 0.00 0.31 0.31 92 1046.6
20260505215040 50 275 3.0 6.0 0.00 0.31 0.31 92 1046.6
20260505214710 50 276 2.0 6.0 0.00 0.31 0.31 92 1046.6
20260505214611 50 276 2.0 6.0 0.00 0.31 0.31 92 1046.6
20260505214511 50 276 2.0 6.0 0.00 0.31 0.31 92 1046.5
20260505214425 50 275 2.0 6.0 0.00 0.31 0.31 92 1046.6
20260505214411 50 276 2.0 6.0 0.00 0.31 0.31 92 1046.6
20260505214311 50 275 2.0 6.0 0.00 0.31 0.31 92 1046.6
20260505214210 50 276 2.0 6.0 0.00 0.31 0.31 92 1046.6
20260505214109 50 276 2.0 4.0 0.00 0.31 0.31 92 1046.6
20260505214009 50 276 2.0 4.0 0.00 0.31 0.31 92 1046.6
20260505213909 50 276 2.0 4.0 0.00 0.31 0.31 92 1046.5
20260505213803 50 275 2.0 4.0 0.00 0.31 0.31 92 1046.5
20260505213703 50 276 2.0 4.0 0.00 0.31 0.31 92 1046.6
20260505213604 50 275 2.0 4.0 0.00 0.31 0.31 92 1046.6
20260505213505 51 275 2.0 4.0 0.00 0.31 0.31 92 1046.6
20260505213435 51 276 2.0 4.0 0.00 0.31 0.31 92 1046.6
20260505213423 51 276 3.0 4.0 0.00 0.31 0.31 92 1046.5
20260505213102 51 276 3.0 4.0 0.00 0.31 0.31 92 1046.6
20260505213000 51 276 3.0 4.0 0.00 0.31 0.31 92 1046.6
20260505212923 51 275 2.0 4.0 0.00 0.31 0.31 92 1046.6
20260505212858 51 276 2.0 4.0 0.00 0.31 0.31 92 1046.6
20260505212754 51 275 2.0 4.0 0.00 0.31 0.31 92 1046.5
20260505212652 51 275 2.0 4.0 0.00 0.31 0.31 92 1046.5
20260505212550 51 276 2.0 4.0 0.00 0.31 0.31 92 1046.6
20260505212451 51 276 2.0 4.0 0.00 0.31 0.31 92 1046.6
20260505212422 51 275 2.0 4.0 0.00 0.31 0.31 92 1046.6
20260505212350 51 275 2.0 4.0 0.00 0.31 0.31 92 1046.6
20260505212242 51 275 2.0 4.0 0.00 0.31 0.31 92 1046.6
20260505212145 51 276 1.0 4.0 0.00 0.31 0.31 92 1046.6
20260505212047 51 276 1.0 3.0 0.00 0.31 0.31 92 1046.6
20260505211923 51 276 1.0 3.0 0.00 0.31 0.31 92 1046.6
20260505211843 51 275 1.0 3.0 0.00 0.31 0.31 92 1046.6
20260505211743 51 274 1.0 3.0 0.00 0.31 0.31 92 1046.6
20260505211641 51 275 2.0 3.0 0.00 0.31 0.31 92 1046.7
20260505211538 51 275 1.0 3.0 0.00 0.31 0.31 92 1046.7
20260505211440 51 276 1.0 3.0 0.00 0.31 0.31 92 1046.7
20260505211430 51 276 1.0 3.0 0.00 0.31 0.31 92 1046.7
20260505211424 51 275 1.0 3.0 0.00 0.31 0.31 92 1046.7
20260505211415 51 275 1.0 3.0 0.00 0.31 0.31 92 1046.7
20260505211404 51 276 1.0 3.0 0.00 0.31 0.31 92 1046.7
20260505210836 51 276 1.0 3.0 0.00 0.31 0.31 92 1046.7
20260505210732 51 276 1.0 3.0 0.00 0.31 0.31 92 1046.7
20260505210632 51 276 1.0 3.0 0.00 0.31 0.31 92 1046.7
20260505210531 51 275 1.0 3.0 0.00 0.31 0.31 92 1046.7
20260505210433 51 276 1.0 3.0 0.00 0.31 0.31 92 1046.7
20260505210422 51 275 1.0 3.0 0.00 0.31 0.31 92 1046.7
20260505210331 51 276 2.0 3.0 0.00 0.31 0.31 92 1046.6
20260505210309 51 275 2.0 4.0 0.00 0.31 0.31 92 1046.6
20260505210301 51 274 2.0 4.0 0.00 0.31 0.31 92 1046.6
20260505205932 51 276 2.0 4.0 0.00 0.31 0.31 92 1046.6
20260505205923 51 275 2.0 4.0 0.00 0.31 0.31 92 1046.6
20260505205830 51 275 2.0 4.0 0.00 0.31 0.31 92 1046.5
20260505205742 51 276 2.0 4.0 0.00 0.31 0.31 92 1046.5
20260505205731 51 276 3.0 4.0 0.00 0.31 0.31 92 1046.5
20260505205721 51 276 3.0 4.0 0.00 0.31 0.31 92 1046.5
20260505205451 51 276 3.0 4.0 0.00 0.31 0.31 92 1046.5
20260505205440 51 276 2.0 4.0 0.00 0.31 0.31 92 1046.5
20260505205118 51 275 2.0 4.0 0.00 0.31 0.31 92 1046.6
20260505205105 51 276 2.0 4.0 0.00 0.31 0.31 92 1046.6
20260505205049 51 276 2.0 4.0 0.01 0.31 0.31 92 1046.7
20260505204712 51 276 2.0 4.0 0.01 0.31 0.31 92 1046.6
20260505204627 52 275 2.0 4.0 0.01 0.31 0.31 92 1046.6
20260505204617 52 276 2.0 3.0 0.01 0.31 0.31 92 1046.6
20260505204607 52 276 2.0 4.0 0.01 0.31 0.31 92 1046.5
20260505204600 52 275 2.0 4.0 0.01 0.31 0.31 92 1046.5
20260505204544 52 275 2.0 4.0 0.01 0.31 0.31 92 1046.5
20260505204538 52 275 2.0 4.0 0.01 0.31 0.31 92 1046.5
20260505204305 52 276 2.0 4.0 0.01 0.31 0.31 92 1046.5
20260505204034 52 275 2.0 4.0 0.01 0.31 0.31 92 1046.4
20260505203704 52 275 2.0 4.0 0.01 0.31 0.31 92 1046.4
20260505203606 52 276 2.0 4.0 0.01 0.31 0.31 92 1046.4
20260505203504 52 275 2.0 4.0 0.01 0.31 0.31 92 1046.4
20260505203418 52 275 2.0 4.0 0.01 0.31 0.31 92 1046.4
20260505203406 52 276 2.0 4.0 0.01 0.31 0.31 92 1046.4
20260505203304 52 276 2.0 3.0 0.01 0.31 0.31 92 1046.4
20260505203203 52 276 2.0 3.0 0.01 0.31 0.31 92 1046.3
20260505203104 52 276 2.0 3.0 0.01 0.31 0.31 92 1046.4
20260505202937 52 275 2.0 3.0 0.01 0.31 0.31 92 1046.4
20260505202930 52 276 2.0 3.0 0.01 0.31 0.31 92 1046.4
20260505202922 52 275 2.0 3.0 0.01 0.31 0.31 92 1046.4
20260505202907 52 276 2.0 3.0 0.01 0.31 0.31 92 1046.3
20260505202646 52 275 2.0 3.0 0.01 0.31 0.31 92 1046.2
20260505202354 52 275 2.0 3.0 0.01 0.31 0.31 92 1046.2
20260505202252 52 275 2.0 3.0 0.01 0.31 0.31 92 1046.2
20260505202158 52 276 2.0 3.0 0.01 0.31 0.31 92 1046.2
20260505202150 52 275 2.0 3.0 0.01 0.31 0.31 92 1046.1
20260505202143 52 275 2.0 3.0 0.01 0.31 0.31 92 1046.1
20260505201859 52 276 2.0 3.0 0.01 0.31 0.31 92 1046.1
20260505201851 52 276 1.0 3.0 0.01 0.31 0.31 92 1046.0
20260505201844 52 276 1.0 3.0 0.01 0.31 0.31 92 1046.0
20260505201819 52 276 1.0 3.0 0.01 0.31 0.31 92 1046.0
20260505201811 52 276 1.0 3.0 0.01 0.31 0.31 92 1046.0
20260505201545 52 276 1.0 3.0 0.01 0.31 0.31 92 1046.0
20260505201530 52 276 1.0 3.0 0.01 0.31 0.31 92 1046.0
20260505200948 52 276 0.0 2.0 0.01 0.31 0.31 92 1046.0
20260505200934 52 275 0.0 3.0 0.01 0.31 0.31 92 1045.9
20260505200925 52 275 0.0 3.0 0.01 0.31 0.31 92 1045.9
20260505200915 52 276 0.0 3.0 0.01 0.31 0.31 92 1046.0
20260505200549 52 275 1.0 3.0 0.01 0.31 0.31 92 1046.0
20260505200448 52 275 1.0 3.0 0.01 0.31 0.31 91 1045.9
20260505200412 52 275 1.0 3.0 0.01 0.31 0.31 92 1045.9
20260505200351 52 276 1.0 3.0 0.01 0.31 0.31 92 1045.9
20260505200246 52 276 1.0 3.0 0.01 0.31 0.31 92 1045.9
20260505200146 52 276 1.0 3.0 0.01 0.31 0.31 91 1045.9
20260505200108 52 275 1.0 3.0 0.01 0.31 0.31 91 1045.9
20260505200057 52 276 0.0 3.0 0.01 0.31 0.31 91 1045.9
20260505200046 52 276 0.0 2.0 0.01 0.31 0.31 91 1045.9
20260505200037 52 276 1.0 2.0 0.01 0.31 0.31 91 1045.9
20260505200023 52 275 1.0 2.0 0.01 0.31 0.31 91 1045.8
20260505195438 52 276 1.0 3.0 0.01 0.31 0.31 91 1045.8
20260505195412 52 275 1.0 3.0 0.01 0.31 0.31 91 1045.8
20260505195334 52 276 1.0 3.0 0.01 0.31 0.31 91 1045.8
20260505195234 52 275 1.0 3.0 0.01 0.31 0.31 91 1045.8
20260505195202 52 276 1.0 3.0 0.01 0.31 0.31 91 1045.7
20260505195153 52 275 1.0 3.0 0.01 0.31 0.30 91 1045.8
20260505194912 52 276 1.0 4.0 0.00 0.30 0.30 91 1045.7
20260505194832 52 275 2.0 4.0 0.00 0.30 0.30 91 1045.7
20260505194738 52 276 2.0 4.0 0.00 0.31 0.30 91 1045.7
20260505194724 52 275 2.0 4.0 0.00 0.31 0.30 91 1045.7
20260505194718 52 275 2.0 4.0 0.00 0.31 0.30 91 1045.6
20260505194658 52 276 2.0 4.0 0.00 0.31 0.30 91 1045.7
20260505194646 52 276 2.0 4.0 0.00 0.31 0.30 91 1045.6
20260505194638 53 275 3.0 4.0 0.00 0.31 0.30 91 1045.6
20260505194359 53 275 3.0 7.0 0.00 0.31 0.30 91 1045.6
20260505193832 53 276 3.0 7.0 0.00 0.32 0.30 91 1045.6
20260505193802 53 276 3.0 7.0 0.00 0.32 0.30 91 1045.6
20260505193754 53 276 3.0 7.0 0.00 0.33 0.30 91 1045.5
20260505193413 53 276 3.0 7.0 0.00 0.34 0.30 91 1045.5
20260505193326 53 276 3.0 7.0 0.00 0.34 0.30 91 1045.5
20260505193305 53 276 3.0 7.0 0.00 0.35 0.30 91 1045.4
20260505193258 53 275 2.0 7.0 0.00 0.35 0.30 91 1045.4
20260505192911 53 275 2.0 6.0 0.00 0.35 0.30 91 1045.2
20260505192826 53 274 2.0 4.0 0.00 0.35 0.30 91 1045.4
20260505192726 53 274 2.0 4.0 0.00 0.36 0.30 91 1045.2
20260505192626 53 275 2.0 4.0 0.00 0.36 0.30 91 1045.2
20260505192526 53 274 2.0 4.0 0.00 0.36 0.30 91 1045.2
20260505192426 53 274 2.0 4.0 0.00 0.37 0.30 91 1045.2
20260505192410 53 275 2.0 4.0 0.00 0.38 0.30 91 1045.2
20260505192328 53 275 2.0 4.0 0.00 0.38 0.30 91 1045.1
20260505192226 53 274 2.0 3.0 0.00 0.39 0.30 91 1045.1
20260505192126 53 275 2.0 4.0 0.00 0.39 0.30 91 1045.1
20260505192108 53 274 2.0 4.0 0.00 0.39 0.30 91 1045.0
20260505192101 53 275 2.0 4.0 0.00 0.40 0.30 91 1045.0
20260505192052 53 274 2.0 4.0 0.00 0.40 0.30 91 1045.0
20260505191726 53 278 2.0 4.0 0.00 0.41 0.30 91 1045.0
20260505191625 53 275 2.0 4.0 0.00 0.41 0.30 91 1044.9
20260505191606 53 275 2.0 4.0 0.00 0.42 0.30 91 1045.0
20260505191558 53 274 2.0 4.0 0.00 0.43 0.30 91 1044.9
20260505191548 53 275 2.0 4.0 0.00 0.43 0.30 91 1044.9
20260505191311 53 275 2.0 4.0 0.00 0.43 0.30 91 1044.9
20260505191304 53 274 2.0 4.0 0.00 0.43 0.30 91 1044.9
20260505191255 53 275 2.0 4.0 0.00 0.43 0.30 91 1044.8
20260505191012 53 275 2.0 4.0 0.00 0.44 0.30 91 1044.8
20260505190954 53 274 2.0 4.0 0.00 0.44 0.30 91 1044.8
20260505190654 53 275 2.0 4.0 0.00 0.44 0.30 91 1044.7
20260505190644 53 275 2.0 4.0 0.00 0.45 0.30 91 1044.8
20260505190630 53 275 2.0 4.0 0.00 0.45 0.30 91 1044.7
20260505190355 53 275 2.0 4.0 0.00 0.45 0.30 91 1044.7
20260505190347 53 275 2.0 4.0 0.00 0.45 0.30 91 1044.7
20260505190027 53 275 2.0 9.0 0.00 0.45 0.30 91 1044.6
20260505185924 53 274 2.0 9.0 0.00 0.45 0.30 90 1044.7
20260505185910 53 275 2.0 9.0 0.00 0.45 0.30 90 1044.7
20260505185822 53 275 2.0 9.0 0.00 0.45 0.30 90 1044.7
20260505185723 53 274 2.0 9.0 0.00 0.45 0.30 90 1044.7
20260505185622 53 275 2.0 9.0 0.00 0.45 0.30 90 1044.7
20260505185522 53 274 2.0 9.0 0.00 0.45 0.30 90 1044.6
20260505185423 53 275 2.0 9.0 0.00 0.45 0.30 90 1044.6
20260505185412 53 274 2.0 9.0 0.00 0.45 0.30 90 1044.6
20260505185322 53 275 3.0 9.0 0.00 0.45 0.30 90 1044.6
20260505185222 53 274 3.0 9.0 0.00 0.45 0.30 90 1044.5
20260505185121 54 274 3.0 11.0 0.00 0.45 0.30 90 1044.6
20260505185030 54 274 4.0 12.0 0.00 0.45 0.30 91 1044.6
20260505184910 54 274 4.0 12.0 0.00 0.45 0.30 91 1044.6
20260505184852 54 274 4.0 12.0 0.00 0.45 0.30 91 1044.6
20260505184845 54 274 5.0 12.0 0.00 0.45 0.30 91 1044.6
20260505184522 54 275 5.0 12.0 0.00 0.45 0.30 91 1044.6
20260505184410 54 274 4.0 12.0 0.00 0.45 0.30 91 1044.6
20260505184322 54 272 4.0 12.0 0.00 0.45 0.30 91 1044.5
20260505184222 54 326 4.0 12.0 0.00 0.45 0.30 91 1044.4
20260505184122 54 322 3.0 12.0 0.00 0.45 0.30 91 1044.5
20260505184101 54 303 3.0 10.0 0.00 0.45 0.30 91 1044.2
20260505184053 54 120 3.0 10.0 0.00 0.45 0.30 91 1044.1
20260505184043 54 119 3.0 10.0 0.00 0.45 0.30 91 1044.1
20260505183748 54 143 2.0 6.0 0.00 0.45 0.30 91 1044.6
20260505183737 54 269 2.0 4.0 0.00 0.45 0.30 91 1044.9
20260505183727 54 268 2.0 4.0 0.00 0.45 0.30 91 1044.9
20260505183456 54 270 2.0 4.0 0.00 0.45 0.30 91 1044.9
20260505183446 54 270 2.0 4.0 0.00 0.45 0.30 91 1044.9
20260505183122 54 270 2.0 4.0 0.00 0.45 0.30 91 1044.8
20260505183031 54 270 2.0 4.0 0.00 0.45 0.30 91 1044.8
20260505182910 54 270 2.0 4.0 0.00 0.45 0.30 91 1044.8
20260505182818 54 270 2.0 3.0 0.00 0.45 0.30 91 1044.8
20260505182718 54 270 2.0 3.0 0.00 0.45 0.30 91 1044.8
20260505182651 54 270 2.0 3.0 0.00 0.45 0.30 91 1044.9
20260505182641 54 272 2.0 3.0 0.00 0.45 0.30 91 1044.9
20260505182630 54 270 2.0 3.0 0.00 0.45 0.30 91 1044.9
20260505182318 54 270 2.0 3.0 0.00 0.45 0.30 91 1044.9
20260505182218 54 270 2.0 3.0 0.00 0.45 0.30 91 1045.0
20260505182146 54 270 2.0 3.0 0.00 0.45 0.30 91 1045.0
20260505182139 55 270 2.0 3.0 0.00 0.45 0.30 91 1045.0
20260505182121 55 270 2.0 3.0 0.00 0.45 0.30 91 1045.0
20260505181818 55 269 2.0 3.0 0.00 0.45 0.30 91 1045.0
20260505181718 55 299 2.0 3.0 0.00 0.45 0.30 91 1045.0
20260505181620 55 298 2.0 3.0 0.00 0.45 0.30 91 1045.1
20260505181518 55 298 2.0 3.0 0.02 0.45 0.30 91 1045.1
20260505181407 55 298 2.0 3.0 0.02 0.45 0.30 91 1045.2
20260505181318 55 298 2.0 3.0 0.02 0.45 0.30 91 1045.1
20260505181219 55 298 1.0 3.0 0.02 0.45 0.30 91 1045.2
20260505181131 55 299 1.0 3.0 0.02 0.45 0.30 91 1045.2
20260505181018 55 298 1.0 3.0 0.02 0.45 0.30 91 1045.2
20260505180948 55 298 1.0 3.0 0.02 0.45 0.30 91 1045.2
20260505180940 55 298 1.0 3.0 0.02 0.45 0.30 91 1045.2
20260505180618 55 299 1.0 3.0 0.02 0.45 0.30 92 1045.2
20260505180518 55 298 1.0 3.0 0.02 0.45 0.30 91 1045.2
20260505180502 55 298 1.0 4.0 0.02 0.45 0.30 91 1045.4
20260505180452 55 299 1.0 4.0 0.02 0.45 0.30 91 1045.4
20260505180443 55 298 1.0 4.0 0.02 0.45 0.30 91 1045.4
20260505180118 55 298 2.0 4.0 0.02 0.45 0.30 91 1045.4
20260505180020 55 298 2.0 4.0 0.02 0.45 0.30 91 1045.4
20260505175907 55 298 2.0 4.0 0.02 0.45 0.30 91 1045.4
20260505175819 55 299 2.0 4.0 0.02 0.45 0.30 91 1045.4
20260505175733 55 299 2.0 4.0 0.02 0.45 0.30 91 1045.4
20260505175726 55 299 2.0 4.0 0.02 0.45 0.30 91 1045.2
20260505175717 55 298 2.0 4.0 0.02 0.45 0.30 91 1045.2
20260505175447 55 299 2.0 4.0 0.02 0.45 0.30 91 1045.2
20260505175437 55 299 2.0 4.0 0.02 0.45 0.30 91 1045.4
20260505175109 55 298 2.0 4.0 0.02 0.45 0.30 91 1045.2
20260505175007 55 299 1.0 4.0 0.02 0.45 0.30 91 1045.2
20260505174916 55 298 1.0 4.0 0.02 0.45 0.30 91 1045.2
20260505174907 55 297 1.0 4.0 0.02 0.45 0.30 91 1045.2
20260505174808 55 298 1.0 4.0 0.02 0.45 0.30 91 1045.2
20260505174706 55 298 1.0 4.0 0.02 0.45 0.30 91 1045.2
20260505174655 55 298 1.0 4.0 0.02 0.45 0.30 91 1045.2
20260505174646 55 298 0.0 4.0 0.02 0.45 0.30 91 1045.2
20260505174628 55 298 0.0 1.0 0.02 0.45 0.30 91 1045.2
20260505174616 55 298 0.0 1.0 0.02 0.45 0.30 91 1045.2
20260505174346 55 297 0.0 2.0 0.02 0.45 0.30 91 1045.1
20260505174338 55 298 0.0 2.0 0.02 0.45 0.30 91 1045.1
20260505174326 55 297 0.0 2.0 0.02 0.45 0.30 91 1045.1
20260505174040 55 298 0.0 2.0 0.02 0.45 0.30 91 1045.1
20260505174032 55 297 0.0 2.0 0.02 0.45 0.30 91 1045.1
20260505173535 55 298 0.0 2.0 0.02 0.45 0.30 91 1045.2
20260505173204 55 298 1.0 2.0 0.03 0.45 0.30 91 1045.2
20260505173146 55 298 1.0 2.0 0.03 0.45 0.30 91 1045.2
20260505173138 55 298 1.0 2.0 0.03 0.45 0.30 91 1045.2
20260505172906 55 298 1.0 2.0 0.03 0.45 0.30 91 1045.2
20260505172803 55 298 1.0 2.0 0.03 0.45 0.30 91 1045.2
20260505172726 55 298 1.0 3.0 0.03 0.45 0.30 91 1045.2
20260505172721 55 298 1.0 3.0 0.03 0.45 0.30 91 1045.2
20260505172707 55 298 1.0 3.0 0.03 0.45 0.30 91 1045.2
20260505172436 55 298 2.0 3.0 0.03 0.45 0.30 91 1045.2
20260505172425 55 298 2.0 3.0 0.03 0.45 0.30 91 1045.2
20260505172149 55 298 2.0 3.0 0.04 0.45 0.30 91 1045.2
20260505172141 55 298 2.0 3.0 0.05 0.45 0.30 91 1045.2
20260505172118 55 298 2.0 3.0 0.05 0.45 0.30 91 1045.2
20260505171803 55 298 2.0 3.0 0.05 0.45 0.30 91 1045.1
20260505171703 55 299 2.0 3.0 0.05 0.45 0.30 91 1045.1
20260505171653 55 298 2.0 3.0 0.05 0.45 0.28 91 1045.1
20260505171641 55 298 1.0 3.0 0.03 0.43 0.28 91 1045.2
20260505171621 55 298 1.0 3.0 0.03 0.43 0.28 90 1045.1
20260505171304 55 298 1.0 3.0 0.04 0.43 0.28 90 1045.1
20260505171204 55 359 1.0 3.0 0.04 0.43 0.28 90 1045.1
20260505171143 55 298 1.0 3.0 0.04 0.43 0.28 90 1045.1
20260505171135 55 298 1.0 3.0 0.05 0.43 0.28 90 1045.1
20260505170906 55 298 1.0 3.0 0.05 0.43 0.28 90 1045.1
20260505170804 55 298 0.0 3.0 0.06 0.43 0.28 90 1045.1
20260505170702 55 298 0.0 3.0 0.06 0.43 0.28 90 1045.1
20260505170600 55 298 1.0 3.0 0.06 0.43 0.28 90 1045.1
20260505170457 55 299 1.0 3.0 0.06 0.43 0.28 90 1045.2
20260505170410 55 299 1.0 4.0 0.07 0.43 0.28 90 1045.1
20260505170356 55 298 1.0 4.0 0.07 0.43 0.28 90 1045.1
20260505170256 54 298 1.0 4.0 0.07 0.43 0.28 90 1045.1
20260505170155 54 298 2.0 4.0 0.07 0.43 0.28 90 1045.1
20260505170054 54 299 2.0 4.0 0.08 0.43 0.28 90 1045.1
20260505165954 54 298 2.0 4.0 0.08 0.43 0.28 90 1045.1
20260505165905 54 298 2.0 4.0 0.09 0.43 0.28 90 1045.1
20260505165852 54 298 2.0 4.0 0.09 0.43 0.28 90 1045.1
20260505165750 54 298 2.0 4.0 0.09 0.43 0.28 90 1045.1
20260505165648 54 298 2.0 4.0 0.09 0.43 0.28 90 1045.1
20260505165629 54 298 2.0 4.0 0.09 0.43 0.28 90 1045.1
20260505165620 54 298 2.0 4.0 0.09 0.43 0.28 90 1045.2
20260505165610 54 300 2.0 3.0 0.09 0.43 0.28 90 1045.2
20260505165248 54 298 2.0 3.0 0.09 0.43 0.28 90 1045.2
20260505165232 54 298 1.0 3.0 0.09 0.43 0.28 90 1045.1
20260505165223 54 359 1.0 3.0 0.10 0.43 0.28 90 1045.1
20260505165200 54 298 1.0 3.0 0.10 0.43 0.28 90 1045.1
20260505164933 54 298 1.0 4.0 0.10 0.43 0.28 90 1045.1
20260505164922 54 299 1.0 4.0 0.10 0.43 0.28 90 1045.1
20260505164915 54 298 2.0 4.0 0.10 0.43 0.28 90 1045.1
20260505164901 54 298 2.0 8.0 0.10 0.43 0.28 90 1045.1
20260505164849 54 298 2.0 8.0 0.11 0.43 0.28 90 1045.1
20260505164618 54 297 2.0 8.0 0.11 0.43 0.28 90 1045.1
20260505164350 54 298 3.0 10.0 0.11 0.43 0.28 90 1045.2
20260505164339 54 298 4.0 10.0 0.12 0.43 0.28 90 1045.2
20260505164111 54 298 4.0 10.0 0.12 0.43 0.28 90 1045.2
20260505163847 54 298 4.0 10.0 0.12 0.43 0.28 90 1045.1
20260505163835 54 298 4.0 10.0 0.12 0.43 0.28 90 1045.1
20260505163808 55 300 5.0 10.0 0.12 0.43 0.28 90 1045.1
20260505163533 55 299 5.0 10.0 0.13 0.43 0.27 90 1045.1
20260505163304 55 299 4.0 10.0 0.13 0.42 0.27 90 1045.1
20260505162940 55 103 3.0 10.0 0.13 0.42 0.27 89 1045.0
20260505162903 55 104 3.0 10.0 0.14 0.42 0.27 89 1045.0
20260505162841 55 104 3.0 10.0 0.14 0.42 0.27 89 1045.0
20260505162738 55 104 3.0 10.0 0.15 0.42 0.27 89 1044.9
20260505162639 55 104 3.0 10.0 0.16 0.42 0.27 89 1044.9
20260505162538 55 104 2.0 10.0 0.17 0.42 0.27 89 1045.0
20260505162435 55 100 2.0 10.0 0.19 0.42 0.27 89 1045.1
20260505162404 55 106 2.0 7.0 0.19 0.42 0.27 89 1045.1
20260505162336 55 250 1.0 4.0 0.20 0.42 0.26 89 1045.2
20260505162234 55 255 1.0 4.0 0.20 0.41 0.26 89 1045.4
20260505162134 55 255 1.0 4.0 0.20 0.41 0.26 90 1045.5
20260505162038 55 255 1.0 4.0 0.21 0.41 0.25 89 1045.5
20260505161934 55 255 2.0 4.0 0.22 0.40 0.25 89 1045.5
20260505161904 55 255 2.0 4.0 0.22 0.40 0.25 89 1045.5
20260505161836 55 255 2.0 4.0 0.22 0.40 0.25 89 1045.4
20260505161734 55 255 2.0 4.0 0.22 0.40 0.25 89 1045.5
20260505161631 55 255 2.0 4.0 0.22 0.40 0.24 89 1045.5
20260505161533 55 255 2.0 4.0 0.22 0.39 0.24 89 1045.4
20260505161515 55 256 2.0 4.0 0.22 0.39 0.24 89 1045.5
20260505161504 55 256 2.0 7.0 0.22 0.39 0.24 89 1045.5
20260505161455 55 256 2.0 7.0 0.22 0.39 0.24 89 1045.5
20260505161131 55 256 2.0 7.0 0.22 0.39 0.24 89 1045.5
20260505161110 55 257 2.0 7.0 0.22 0.39 0.23 89 1045.4
20260505161051 55 256 2.0 7.0 0.21 0.38 0.22 89 1045.4
20260505160732 55 256 2.0 7.0 0.20 0.37 0.22 89 1045.5
20260505160701 55 256 2.0 7.0 0.20 0.37 0.21 89 1045.5
20260505160652 55 256 2.0 7.0 0.20 0.36 0.21 89 1045.5
20260505160624 55 256 2.0 7.0 0.20 0.36 0.20 89 1045.5
20260505160332 55 256 2.0 7.0 0.19 0.35 0.20 89 1045.4
20260505160310 55 254 2.0 4.0 0.19 0.35 0.20 89 1045.4
20260505160302 55 254 2.0 4.0 0.18 0.35 0.20 89 1045.4
20260505160251 55 254 2.0 4.0 0.18 0.35 0.20 88 1045.4
20260505153232 57 249 3.0 10.0 0.13 0.30 0.14 83 1045.4
20260505153205 57 248 3.0 7.0 0.13 0.29 0.14 83 1045.4
20260505153159 57 247 3.0 7.0 0.13 0.29 0.13 82 1045.4
20260505152903 58 245 3.0 7.0 0.11 0.28 0.12 82 1045.4
20260505152838 58 253 3.0 7.0 0.11 0.28 0.12 81 1045.4
20260505152734 58 262 3.0 7.0 0.09 0.26 0.11 81 1045.4
20260505152629 58 261 3.0 7.0 0.09 0.25 0.10 80 1045.4
20260505152530 58 261 2.0 7.0 0.08 0.24 0.09 80 1045.2
20260505152430 58 262 3.0 8.0 0.06 0.23 0.08 79 1045.2
20260505152412 58 281 3.0 8.0 0.06 0.23 0.07 79 1045.2
20260505152400 58 281 3.0 8.0 0.06 0.22 0.06 78 1045.1
20260505152352 58 281 3.0 8.0 0.05 0.21 0.06 77 1045.1
20260505152027 59 281 3.0 8.0 0.03 0.20 0.04 76 1045.1
20260505151904 59 281 4.0 8.0 0.02 0.18 0.03 75 1045.1
20260505151824 59 281 4.0 9.0 0.02 0.18 0.03 75 1045.1
20260505151747 60 282 4.0 9.0 0.02 0.18 0.03 74 1045.1
20260505151737 60 282 4.0 9.0 0.02 0.18 0.02 74 1045.1
20260505151721 60 293 4.0 9.0 0.01 0.17 0.02 73 1045.1
20260505151711 60 285 5.0 15.0 0.01 0.17 0.02 72 1045.1
20260505151702 60 274 5.0 15.0 0.01 0.17 0.02 72 1045.1
20260505151117 61 292 6.0 15.0 0.00 0.17 0.02 70 1045.1
20260505151054 61 292 6.0 15.0 0.00 0.17 0.02 69 1045.1
20260505151046 62 289 6.0 15.0 0.00 0.17 0.02 69 1045.1
20260505151037 62 301 6.0 15.0 0.00 0.17 0.02 69 1045.1
20260505150748 62 291 7.0 15.0 0.00 0.17 0.02 68 1045.1
20260505150742 62 289 7.0 15.0 0.00 0.17 0.02 67 1045.1
20260505150728 62 319 7.0 15.0 0.00 0.17 0.02 67 1045.0
20260505150720 63 287 7.0 13.0 0.00 0.17 0.02 67 1045.0
20260505150711 63 274 7.0 13.0 0.00 0.17 0.02 67 1045.0
20260505150702 63 297 7.0 13.0 0.00 0.17 0.02 67 1044.9
20260505150144 64 279 7.0 13.0 0.00 0.17 0.02 69 1044.9
20260505150135 64 278 7.0 13.0 0.00 0.17 0.02 68 1044.9
20260505150126 64 278 7.0 13.0 0.00 0.17 0.02 68 1044.9
20260505150118 64 270 7.0 13.0 0.00 0.17 0.02 67 1044.9
20260505150107 64 299 6.0 13.0 0.00 0.17 0.02 66 1044.9
20260505140547 66 115 3.0 9.0 0.00 0.17 0.02 64 1044.5
20260505140526 66 114 3.0 9.0 0.00 0.17 0.02 64 1044.5
20260505140516 66 114 3.0 9.0 0.00 0.17 0.02 64 1044.5
20260505130306 66 9 2.0 4.0 0.01 0.17 0.02 61 1045.2
20260505130203 66 9 2.0 4.0 0.01 0.17 0.02 61 1045.2
20260505130103 66 10 2.0 4.0 0.01 0.17 0.02 61 1045.2
20260505125036 66 4 2.0 5.0 0.01 0.17 0.02 64 1045.4
20260505125026 66 4 2.0 5.0 0.01 0.17 0.02 64 1045.4
20260505124703 66 4 2.0 5.0 0.01 0.17 0.02 65 1045.4
20260505124601 66 8 2.0 5.0 0.01 0.17 0.02 65 1045.4
20260505124501 66 4 2.0 5.0 0.01 0.17 0.02 64 1045.4
20260505124359 66 4 2.0 5.0 0.01 0.17 0.02 64 1045.5
20260505124339 66 4 2.0 5.0 0.01 0.17 0.02 63 1045.5
20260505124259 66 4 2.0 5.0 0.01 0.17 0.02 63 1045.5
20260505124230 66 4 2.0 5.0 0.01 0.17 0.02 61 1045.5
20260505124217 66 4 3.0 5.0 0.01 0.17 0.02 60 1045.6
20260505123929 66 4 3.0 7.0 0.01 0.17 0.02 60 1045.6
20260505123920 66 4 3.0 7.0 0.01 0.17 0.02 60 1045.6
20260505123619 66 8 3.0 7.0 0.01 0.17 0.02 60 1045.6
20260505123609 66 4 3.0 7.0 0.01 0.17 0.02 61 1045.6
20260505123337 66 4 3.0 7.0 0.01 0.17 0.02 61 1045.7
20260505123247 66 4 3.0 7.0 0.01 0.17 0.02 62 1045.7
20260505123145 66 8 3.0 7.0 0.01 0.17 0.02 62 1045.7
20260505123045 66 8 3.0 7.0 0.01 0.17 0.02 63 1045.7
20260505122945 66 16 2.0 7.0 0.01 0.17 0.02 63 1045.7
20260505122846 66 13 2.0 5.0 0.01 0.17 0.02 62 1045.7
20260505122837 66 14 2.0 5.0 0.01 0.17 0.02 62 1045.7
20260505122745 66 16 2.0 5.0 0.01 0.17 0.02 63 1045.7
20260505122646 66 17 2.0 5.0 0.01 0.17 0.02 63 1045.7
20260505122545 66 17 2.0 5.0 0.01 0.17 0.02 63 1045.7
20260505122446 66 17 2.0 5.0 0.01 0.17 0.02 63 1045.7
20260505122337 66 16 1.0 5.0 0.01 0.17 0.02 63 1045.7
20260505122244 66 16 1.0 5.0 0.01 0.17 0.02 62 1045.7
20260505122144 66 16 1.0 5.0 0.01 0.17 0.02 64 1045.7
20260505122044 66 120 1.0 3.0 0.02 0.17 0.02 67 1045.7
20260505121944 66 120 1.0 5.0 0.02 0.17 0.02 67 1045.7
20260505121836 66 120 2.0 7.0 0.02 0.17 0.02 66 1045.7
20260505121808 66 120 2.0 7.0 0.02 0.17 0.02 65 1045.7
20260505121758 66 120 2.0 7.0 0.02 0.17 0.02 66 1045.7
20260505121437 66 120 3.0 7.0 0.01 0.16 0.01 66 1045.7
20260505121337 65 120 3.0 7.0 0.01 0.16 0.01 67 1045.7
20260505121234 65 120 3.0 7.0 0.01 0.16 0.01 66 1045.8
20260505121133 65 120 3.0 7.0 0.01 0.16 0.01 67 1045.8
20260505121031 65 120 3.0 7.0 0.01 0.16 0.01 68 1045.8
20260505120932 65 120 3.0 7.0 0.01 0.16 0.01 67 1045.8
20260505120824 65 59 3.0 6.0 0.01 0.16 0.01 66 1045.8
20260505120754 65 58 3.0 6.0 0.01 0.16 0.01 66 1045.9
20260505120746 65 59 2.0 6.0 0.01 0.16 0.01 67 1045.9
20260505120421 65 59 2.0 6.0 0.01 0.16 0.01 65 1045.9
20260505120331 65 57 2.0 5.0 0.01 0.16 0.01 65 1045.9
20260505120318 65 56 2.0 5.0 0.01 0.16 0.01 65 1045.9
20260505120219 65 54 2.0 4.0 0.01 0.16 0.01 66 1045.9
20260505120120 64 54 1.0 4.0 0.01 0.16 0.01 67 1046.0
20260505120020 64 55 2.0 4.0 0.01 0.16 0.01 68 1046.0
20260505115926 64 54 2.0 4.0 0.01 0.16 0.01 69 1046.0
20260505115908 64 54 2.0 4.0 0.01 0.16 0.01 69 1046.0
20260505115900 64 54 2.0 4.0 0.01 0.16 0.01 71 1045.9
20260505115846 64 54 2.0 4.0 0.01 0.16 0.01 70 1045.9
20260505115615 64 54 2.0 4.0 0.01 0.16 0.01 71 1045.9
20260505115331 64 54 2.0 4.0 0.01 0.16 0.01 71 1046.0
20260505115322 64 54 2.0 4.0 0.01 0.16 0.01 70 1045.9
20260505115315 64 54 2.0 4.0 0.01 0.16 0.01 71 1045.9
20260505115259 64 54 2.0 4.0 0.01 0.16 0.01 71 1045.9
20260505115026 64 54 2.0 4.0 0.01 0.16 0.01 71 1045.9
20260505114706 64 54 2.0 4.0 0.01 0.16 0.01 71 1045.9
20260505114604 64 54 2.0 4.0 0.01 0.16 0.01 72 1046.0
20260505114503 64 54 2.0 4.0 0.01 0.16 0.01 72 1046.0
20260505114403 64 54 2.0 4.0 0.01 0.16 0.01 73 1045.9
20260505114331 64 53 2.0 4.0 0.01 0.16 0.01 73 1045.9
20260505114303 64 54 2.0 4.0 0.01 0.16 0.01 72 1045.9
20260505114226 64 54 2.0 4.0 0.01 0.16 0.01 72 1046.0
20260505114221 64 54 2.0 4.0 0.01 0.16 0.01 72 1046.0
20260505114211 64 54 2.0 4.0 0.01 0.16 0.01 73 1045.9
20260505114159 64 54 2.0 4.0 0.01 0.16 0.01 74 1046.0
20260505114148 64 54 2.0 4.0 0.01 0.16 0.01 74 1046.0
20260505113641 64 54 2.0 4.0 0.01 0.16 0.01 74 1046.0
20260505113632 64 54 2.0 4.0 0.01 0.16 0.01 73 1046.1
20260505113352 64 54 2.0 5.0 0.01 0.16 0.01 73 1046.0
20260505113345 64 54 2.0 5.0 0.01 0.16 0.01 74 1046.0
20260505113336 64 54 2.0 5.0 0.01 0.16 0.01 73 1046.0
20260505113324 64 54 2.0 5.0 0.01 0.16 0.01 73 1046.0
20260505113057 64 54 2.0 5.0 0.01 0.16 0.01 73 1046.0
20260505112803 65 54 2.0 5.0 0.01 0.16 0.01 74 1046.0
20260505112703 65 54 2.0 5.0 0.01 0.16 0.01 73 1046.0
20260505112604 65 54 2.0 5.0 0.01 0.16 0.01 72 1046.0
20260505112503 65 54 2.0 5.0 0.01 0.16 0.01 73 1046.0
20260505112411 65 54 2.0 5.0 0.01 0.16 0.01 73 1046.1
20260505112337 65 54 2.0 4.0 0.01 0.16 0.01 72 1046.0
20260505112323 65 54 2.0 4.0 0.01 0.16 0.01 71 1046.1
20260505112003 65 54 2.0 4.0 0.00 0.15 0.00 70 1046.1
20260505111904 65 54 2.0 4.0 0.00 0.15 0.00 71 1046.1
20260505111841 65 54 2.0 4.0 0.00 0.15 0.00 72 1046.1
20260505111803 65 54 2.0 5.0 0.00 0.15 0.00 72 1046.1
20260505111733 65 55 2.0 5.0 0.00 0.15 0.00 72 1046.1
20260505111725 65 55 2.0 5.0 0.00 0.15 0.00 71 1046.2
20260505111403 65 56 2.0 5.0 0.00 0.15 0.00 73 1046.2
20260505111332 65 55 3.0 5.0 0.00 0.15 0.00 73 1046.2
20260505111304 65 55 3.0 6.0 0.00 0.15 0.00 71 1046.2
20260505111236 65 55 3.0 6.0 0.00 0.15 0.00 71 1046.2
20260505111230 65 56 3.0 6.0 0.00 0.15 0.00 70 1046.2
20260505110904 65 56 3.0 6.0 0.00 0.15 0.00 70 1046.2
20260505110832 65 55 3.0 6.0 0.00 0.15 0.00 70 1046.2
20260505110804 65 55 3.0 6.0 0.00 0.15 0.00 71 1046.2
20260505110703 65 54 3.0 6.0 0.00 0.15 0.00 71 1046.2
20260505110603 65 54 3.0 6.0 0.00 0.15 0.00 70 1046.2
20260505110504 65 54 3.0 6.0 0.00 0.15 0.00 69 1046.2
20260505110404 65 57 3.0 6.0 0.00 0.15 0.00 68 1046.2
20260505110331 65 57 3.0 6.0 0.00 0.15 0.00 68 1046.2
20260505110303 66 53 3.0 9.0 0.00 0.15 0.00 67 1046.2
20260505110205 66 56 3.0 9.0 0.00 0.15 0.00 68 1046.2
20260505110104 66 110 3.0 9.0 0.00 0.15 0.00 67 1046.2
20260505101951 65 134 4.0 10.0 0.00 0.15 0.00 68 1046.3
20260505101823 65 133 4.0 10.0 0.00 0.15 0.00 68 1046.3
20260505101753 65 133 4.0 10.0 0.00 0.15 0.00 69 1046.3
20260505101651 65 133 5.0 10.0 0.00 0.15 0.00 69 1046.3
20260505101554 66 149 5.0 10.0 0.00 0.15 0.00 70 1046.3
20260505101451 66 85 5.0 11.0 0.00 0.15 0.00 70 1046.3
20260505101351 66 84 5.0 11.0 0.00 0.15 0.00 70 1046.3
20260505101322 66 83 6.0 11.0 0.00 0.15 0.00 70 1046.2
20260505101252 66 83 6.0 11.0 0.00 0.15 0.00 70 1046.2
20260505101147 66 81 5.0 11.0 0.00 0.15 0.00 70 1046.3
20260505101108 66 77 5.0 11.0 0.00 0.15 0.00 70 1046.2
20260505101054 65 77 5.0 11.0 0.00 0.15 0.00 70 1046.3
20260505101042 65 74 6.0 11.0 0.00 0.15 0.00 70 1046.3
20260505101033 65 70 6.0 11.0 0.00 0.15 0.00 70 1046.3
20260505101024 65 70 6.0 11.0 0.00 0.15 0.00 70 1046.2
20260505100751 65 62 6.0 11.0 0.00 0.15 0.00 71 1046.2
20260505100522 65 68 5.0 11.0 0.00 0.15 0.00 73 1046.2
20260505100513 65 58 5.0 11.0 0.00 0.15 0.00 74 1046.2
20260505100219 65 79 5.0 11.0 0.00 0.15 0.00 73 1046.2
20260505100209 65 97 5.0 11.0 0.00 0.15 0.00 73 1046.2
20260505095845 65 85 5.0 9.0 0.00 0.15 0.00 72 1046.2
20260505095825 65 82 4.0 9.0 0.00 0.15 0.00 72 1046.2
20260505095818 65 84 4.0 9.0 0.00 0.15 0.00 72 1046.2
20260505095807 65 100 4.0 9.0 0.00 0.15 0.00 73 1046.2
20260505095445 65 117 4.0 9.0 0.00 0.15 0.00 73 1046.2
20260505095345 65 104 3.0 9.0 0.00 0.15 0.00 73 1046.2
20260505095321 65 103 3.0 9.0 0.00 0.15 0.00 73 1046.2
20260505095241 65 57 3.0 8.0 0.00 0.15 0.00 72 1046.2
20260505095215 65 56 3.0 8.0 0.00 0.15 0.00 72 1046.2
20260505095206 65 56 3.0 8.0 0.00 0.15 0.00 72 1046.2
20260505094821 65 78 4.0 8.0 0.00 0.15 0.00 73 1046.2
20260505094739 65 77 3.0 8.0 0.00 0.15 0.00 73 1046.2
20260505094638 65 77 3.0 8.0 0.00 0.15 0.00 72 1046.2
20260505094539 65 77 3.0 8.0 0.00 0.15 0.00 72 1046.2
20260505094439 65 77 4.0 8.0 0.00 0.15 0.00 72 1046.2
20260505094322 64 77 3.0 8.0 0.00 0.15 0.00 73 1046.2
20260505094238 64 82 3.0 8.0 0.00 0.15 0.00 73 1046.2
20260505094137 64 83 3.0 8.0 0.00 0.15 0.00 73 1046.2
20260505094037 64 83 3.0 8.0 0.00 0.15 0.00 73 1046.2
20260505093936 64 87 4.0 8.0 0.00 0.15 0.00 74 1046.2
20260505093824 64 37 4.0 10.0 0.00 0.15 0.00 73 1046.2
20260505093815 64 34 4.0 10.0 0.00 0.15 0.00 73 1046.1
20260505093800 64 34 4.0 10.0 0.00 0.15 0.00 73 1046.1
20260505093507 64 31 4.0 10.0 0.00 0.15 0.00 74 1046.2
20260505093458 63 79 4.0 10.0 0.00 0.15 0.00 75 1046.1
20260505093449 63 80 4.0 10.0 0.00 0.15 0.00 74 1046.1
20260505093441 63 80 5.0 10.0 0.00 0.15 0.00 74 1046.1
20260505093429 63 80 5.0 10.0 0.00 0.15 0.00 74 1046.1
20260505093420 63 80 5.0 10.0 0.00 0.15 0.00 75 1046.2
20260505093411 63 78 5.0 10.0 0.00 0.15 0.00 75 1046.2
20260505093402 63 30 4.0 10.0 0.00 0.15 0.00 75 1046.2
20260505093134 63 65 4.0 9.0 0.00 0.15 0.00 75 1046.2
20260505093124 63 66 5.0 9.0 0.00 0.15 0.00 75 1046.2
20260505093118 63 67 5.0 9.0 0.00 0.15 0.00 75 1046.3
20260505093103 63 66 5.0 9.0 0.00 0.15 0.00 74 1046.3
20260505092835 63 66 5.0 9.0 0.00 0.15 0.00 74 1046.3
20260505092818 63 66 5.0 9.0 0.00 0.15 0.00 74 1046.3
20260505092329 63 38 5.0 9.0 0.00 0.15 0.00 75 1046.3
20260505092306 63 60 5.0 9.0 0.00 0.15 0.00 75 1046.2
20260505092023 63 50 4.0 9.0 0.00 0.15 0.00 74 1046.2
20260505091755 63 52 4.0 9.0 0.00 0.15 0.00 75 1046.3
20260505091232 63 49 4.0 9.0 0.00 0.15 0.00 74 1046.3
20260505091133 63 33 4.0 9.0 0.00 0.15 0.00 74 1046.2
20260505091033 63 88 4.0 9.0 0.00 0.15 0.00 74 1046.2
20260505090934 63 29 4.0 9.0 0.00 0.15 0.00 74 1046.3
20260505090819 63 31 3.0 9.0 0.00 0.15 0.00 73 1046.3
20260505090732 63 31 3.0 9.0 0.00 0.15 0.00 73 1046.3
20260505090636 63 30 3.0 9.0 0.00 0.15 0.00 74 1046.3
20260505090531 63 27 3.0 9.0 0.00 0.15 0.00 74 1046.2
20260505090430 63 27 4.0 9.0 0.00 0.15 0.00 74 1046.3
20260505090318 63 27 4.0 9.0 0.00 0.15 0.00 73 1046.2
20260505090232 63 27 4.0 9.0 0.00 0.15 0.00 74 1046.3
20260505090131 63 36 3.0 8.0 0.00 0.15 0.00 74 1046.3
20260505090029 63 27 3.0 8.0 0.00 0.15 0.00 74 1046.3
20260505085930 63 27 3.0 8.0 0.00 0.15 0.00 74 1046.3
20260505085817 63 27 4.0 8.0 0.00 0.15 0.00 74 1046.3
20260505085728 63 27 4.0 8.0 0.00 0.15 0.00 74 1046.3
20260505085630 63 28 4.0 9.0 0.00 0.15 0.00 74 1046.3
20260505085536 63 37 4.0 9.0 0.00 0.15 0.00 74 1046.3
20260505085430 63 43 4.0 10.0 0.00 0.15 0.00 74 1046.3
20260505085411 63 48 4.0 10.0 0.00 0.15 0.00 74 1046.3
20260505085402 63 39 4.0 10.0 0.00 0.15 0.00 75 1046.3
20260505085354 62 43 4.0 10.0 0.00 0.15 0.00 76 1046.3
20260505085030 62 8 4.0 10.0 0.00 0.15 0.00 76 1046.3
20260505084929 62 4 5.0 10.0 0.00 0.15 0.00 76 1046.3
20260505084828 62 359 5.0 10.0 0.00 0.15 0.00 76 1046.3
20260505084817 62 4 5.0 10.0 0.00 0.15 0.00 76 1046.3
20260505084729 62 49 5.0 10.0 0.00 0.15 0.00 76 1046.3
20260505084628 62 49 5.0 10.0 0.00 0.15 0.00 77 1046.3
20260505084530 62 347 5.0 10.0 0.00 0.15 0.00 78 1046.3
20260505084432 61 12 5.0 9.0 0.00 0.15 0.00 77 1046.3
20260505084402 61 48 5.0 10.0 0.00 0.15 0.00 77 1046.3
20260505084354 61 48 5.0 10.0 0.00 0.15 0.00 78 1046.3
20260505084035 61 46 5.0 10.0 0.00 0.15 0.00 78 1046.3
20260505083929 61 39 4.0 10.0 0.00 0.15 0.00 77 1046.3
20260505083829 61 38 4.0 10.0 0.00 0.15 0.00 77 1046.3
20260505083817 61 35 4.0 10.0 0.00 0.15 0.00 77 1046.3
20260505083753 61 39 4.0 10.0 0.00 0.15 0.00 78 1046.4
20260505083746 61 46 4.0 10.0 0.00 0.15 0.00 78 1046.4
20260505083729 61 43 4.0 10.0 0.00 0.15 0.00 77 1046.4
20260505083720 61 41 4.0 10.0 0.00 0.15 0.00 77 1046.4
20260505083454 61 30 4.0 10.0 0.00 0.15 0.00 78 1046.4
20260505083128 61 33 4.0 10.0 0.00 0.15 0.00 79 1046.4
20260505083104 61 44 4.0 10.0 0.00 0.15 0.00 79 1046.5
20260505083054 61 45 4.0 10.0 0.00 0.15 0.00 79 1046.5
20260505082817 61 44 5.0 10.0 0.00 0.15 0.00 79 1046.5
20260505082806 60 45 5.0 10.0 0.00 0.15 0.00 79 1046.5
20260505082752 60 45 4.0 10.0 0.00 0.15 0.00 78 1046.5
20260505082429 60 40 4.0 10.0 0.00 0.15 0.00 78 1046.5
20260505082327 60 51 4.0 10.0 0.00 0.15 0.00 78 1046.5
20260505082317 60 52 4.0 10.0 0.00 0.15 0.00 78 1046.5
20260505082227 60 41 4.0 10.0 0.00 0.15 0.00 78 1046.5
20260505082127 60 27 3.0 8.0 0.00 0.15 0.00 78 1046.6
20260505082111 60 26 4.0 8.0 0.00 0.15 0.00 78 1046.6
20260505082100 60 29 4.0 8.0 0.00 0.15 0.00 77 1046.6
20260505082031 60 35 3.0 6.0 0.00 0.15 0.00 77 1046.6
20260505081727 61 35 3.0 6.0 0.00 0.15 0.00 77 1046.6
20260505081627 61 43 3.0 6.0 0.00 0.15 0.00 77 1046.6
20260505081525 61 47 3.0 7.0 0.00 0.15 0.00 77 1046.6
20260505081423 61 44 3.0 7.0 0.00 0.15 0.00 77 1046.7
20260505081323 61 45 3.0 7.0 0.00 0.15 0.00 77 1046.7
20260505081304 61 45 3.0 7.0 0.00 0.15 0.00 76 1046.7
20260505081220 61 45 3.0 10.0 0.00 0.15 0.00 76 1046.7
20260505081118 61 45 3.0 10.0 0.00 0.15 0.00 76 1046.7
20260505081056 61 41 3.0 10.0 0.00 0.15 0.00 76 1046.7
20260505081045 61 33 3.0 10.0 0.00 0.15 0.00 76 1046.7
20260505081030 61 33 4.0 11.0 0.00 0.15 0.00 75 1046.7
20260505080751 62 31 4.0 11.0 0.00 0.15 0.00 75 1046.7
20260505080743 62 43 4.0 13.0 0.00 0.15 0.00 75 1046.6
20260505080735 62 339 5.0 13.0 0.00 0.15 0.00 75 1046.6
20260505080727 62 336 5.0 13.0 0.00 0.15 0.00 75 1046.5
20260505080714 62 33 5.0 13.0 0.00 0.15 0.00 75 1046.5
20260505080705 62 20 5.0 13.0 0.00 0.15 0.00 75 1046.5
20260505075907 63 44 6.0 13.0 0.00 0.15 0.00 75 1046.3
20260505075815 63 8 5.0 13.0 0.00 0.15 0.00 75 1046.3
20260505075804 63 354 5.0 13.0 0.00 0.15 0.00 75 1046.3
20260505075707 63 8 5.0 13.0 0.00 0.15 0.00 75 1046.3
20260505075608 63 17 5.0 12.0 0.00 0.15 0.00 76 1046.3
20260505075505 63 331 4.0 11.0 0.00 0.15 0.00 75 1046.2
20260505075404 63 324 4.0 11.0 0.00 0.15 0.00 75 1046.2
20260505075307 63 354 4.0 12.0 0.00 0.15 0.00 75 1046.2
20260505075203 63 341 4.0 12.0 0.00 0.15 0.00 76 1046.2
20260505075104 62 312 4.0 12.0 0.00 0.15 0.00 76 1046.1
20260505075005 62 27 4.0 13.0 0.00 0.15 0.00 77 1046.2
20260505074954 62 322 4.0 13.0 0.00 0.15 0.00 77 1046.2
20260505074945 62 359 4.0 13.0 0.00 0.15 0.00 77 1046.2
20260505074938 62 354 4.0 13.0 0.00 0.15 0.00 77 1046.2
20260505074631 62 259 4.0 13.0 0.00 0.15 0.00 76 1046.2
20260505074623 62 359 4.0 13.0 0.00 0.15 0.00 75 1046.2
20260505074305 62 8 4.0 13.0 0.00 0.15 0.00 75 1046.2
20260505074253 62 8 4.0 13.0 0.00 0.15 0.00 75 1046.2
20260505074152 62 359 3.0 13.0 0.00 0.15 0.00 75 1046.3
20260505074053 62 359 3.0 13.0 0.00 0.15 0.00 75 1046.3
20260505073953 62 337 3.0 12.0 0.00 0.15 0.00 76 1046.2
20260505073926 62 15 3.0 12.0 0.00 0.15 0.00 76 1046.3
20260505073916 62 11 3.0 12.0 0.00 0.15 0.00 77 1046.2
20260505073909 62 21 3.0 12.0 0.00 0.15 0.00 77 1046.2
20260505073547 62 262 3.0 13.0 0.00 0.15 0.00 77 1046.2
20260505073447 62 262 4.0 13.0 0.00 0.15 0.00 77 1046.3
20260505073346 61 261 4.0 13.0 0.00 0.15 0.00 78 1046.3
20260505073328 61 314 4.0 14.0 0.00 0.15 0.00 78 1046.3
20260505073320 61 314 4.0 14.0 0.00 0.15 0.00 78 1046.3
20260505073311 61 314 4.0 14.0 0.00 0.15 0.00 79 1046.3
20260505072943 61 359 4.0 14.0 0.00 0.15 0.00 79 1046.3
20260505072842 61 359 4.0 14.0 0.00 0.15 0.00 79 1046.3
20260505072806 60 359 4.0 14.0 0.00 0.15 0.00 79 1046.3
20260505072743 60 359 4.0 14.0 0.00 0.15 0.00 79 1046.3
20260505072643 60 16 4.0 14.0 0.00 0.15 0.00 79 1046.3
20260505072542 60 12 4.0 14.0 0.00 0.15 0.00 79 1046.3
20260505072443 60 354 3.0 14.0 0.00 0.15 0.00 79 1046.3
20260505072423 60 8 3.0 14.0 0.00 0.15 0.00 79 1046.3
20260505072410 60 340 3.0 8.0 0.00 0.15 0.00 79 1046.3
20260505072403 60 331 3.0 8.0 0.00 0.15 0.00 79 1046.3
20260505072039 60 48 2.0 8.0 0.00 0.15 0.00 79 1046.3
20260505071939 60 43 2.0 8.0 0.00 0.15 0.00 80 1046.3
20260505071839 60 235 2.0 7.0 0.00 0.15 0.00 79 1046.3
20260505071803 60 155 2.0 7.0 0.00 0.15 0.00 79 1046.3
20260505071739 60 155 2.0 7.0 0.00 0.15 0.00 80 1046.4
20260505071638 60 240 2.0 5.0 0.00 0.15 0.00 80 1046.4
20260505071558 60 240 2.0 5.0 0.00 0.15 0.00 81 1046.4
20260505071547 60 240 2.0 5.0 0.00 0.15 0.00 81 1046.4
20260505071536 60 277 2.0 4.0 0.00 0.15 0.00 81 1046.4
20260505071525 60 276 2.0 4.0 0.00 0.15 0.00 81 1046.4
20260505071515 60 276 2.0 4.0 0.00 0.15 0.00 81 1046.3
20260505070933 59 276 2.0 7.0 0.00 0.15 0.00 81 1046.3
20260505070832 59 278 2.0 7.0 0.00 0.15 0.00 81 1046.3
20260505070803 59 276 2.0 7.0 0.00 0.15 0.00 82 1046.3
20260505070733 59 278 2.0 7.0 0.00 0.15 0.00 82 1046.3
20260505070701 59 275 2.0 7.0 0.00 0.15 0.00 81 1046.3
20260505070654 59 275 3.0 7.0 0.00 0.15 0.00 81 1046.4
20260505070305 59 275 3.0 7.0 0.00 0.15 0.00 81 1046.4
20260505070233 59 275 3.0 7.0 0.00 0.15 0.00 81 1046.4
20260505070131 59 275 3.0 8.0 0.00 0.15 0.00 81 1046.4
20260505070031 59 276 3.0 8.0 0.00 0.15 0.00 81 1046.3
20260505070015 59 206 3.0 8.0 0.00 0.15 0.00 82 1046.4
20260505070005 59 205 3.0 8.0 0.00 0.15 0.00 82 1046.3
20260505065953 59 203 3.0 8.0 0.00 0.15 0.00 82 1046.3
20260505065628 59 203 3.0 8.0 0.00 0.15 0.00 82 1046.4
20260505065529 59 204 3.0 8.0 0.00 0.15 0.00 82 1046.3
20260505065428 59 306 3.0 8.0 0.00 0.15 0.00 82 1046.4
20260505065324 58 306 3.0 8.0 0.00 0.15 0.00 82 1046.3
20260505065304 58 310 3.0 10.0 0.00 0.15 0.00 82 1046.3
20260505065232 58 326 3.0 10.0 0.00 0.15 0.00 82 1046.4
20260505065225 58 270 3.0 10.0 0.00 0.15 0.00 82 1046.4
20260505065217 58 253 3.0 10.0 0.00 0.15 0.00 83 1046.4
20260505065200 58 98 3.0 10.0 0.00 0.15 0.00 84 1046.3
20260505065140 58 245 3.0 10.0 0.00 0.15 0.00 83 1046.4
20260505064637 58 334 3.0 10.0 0.00 0.15 0.00 84 1046.4
20260505064316 57 322 2.0 10.0 0.00 0.15 0.00 85 1046.5
20260505064304 57 328 2.0 9.0 0.00 0.15 0.00 85 1046.5
20260505064211 57 286 2.0 9.0 0.00 0.15 0.00 85 1046.5
20260505064110 57 289 2.0 9.0 0.00 0.15 0.00 85 1046.4
20260505064009 57 288 2.0 9.0 0.00 0.15 0.00 86 1046.4
20260505063906 57 278 2.0 9.0 0.00 0.15 0.00 86 1046.5
20260505063815 56 31 2.0 7.0 0.00 0.15 0.00 86 1046.5
20260505063806 56 33 2.0 7.0 0.00 0.15 0.00 86 1046.5
20260505063704 56 33 2.0 7.0 0.00 0.15 0.00 87 1046.5
20260505063604 56 299 2.0 7.0 0.00 0.15 0.00 87 1046.4
20260505063505 56 298 2.0 7.0 0.00 0.15 0.00 87 1046.4
20260505063404 56 298 2.0 7.0 0.00 0.15 0.00 87 1046.4
20260505063307 56 298 2.0 7.0 0.00 0.15 0.00 87 1046.4
20260505063203 56 297 2.0 7.0 0.00 0.15 0.00 87 1046.4
20260505063103 56 337 2.0 7.0 0.00 0.15 0.00 87 1046.4
20260505063004 55 307 2.0 7.0 0.00 0.15 0.00 87 1046.5
20260505062904 55 256 2.0 7.0 0.00 0.15 0.00 87 1046.4
20260505062806 55 139 2.0 4.0 0.00 0.15 0.00 87 1046.5
20260505062706 55 139 2.0 4.0 0.00 0.15 0.00 87 1046.4
20260505062603 55 141 2.0 4.0 0.00 0.15 0.00 87 1046.4
20260505062503 55 141 2.0 5.0 0.00 0.15 0.00 87 1046.5
20260505062403 55 141 2.0 5.0 0.00 0.15 0.00 87 1046.5
20260505062316 55 141 2.0 5.0 0.00 0.15 0.00 87 1046.5
20260505062304 55 141 2.0 5.0 0.00 0.15 0.00 87 1046.5
20260505062204 55 143 2.0 5.0 0.00 0.15 0.00 87 1046.5
20260505062059 55 141 2.0 5.0 0.00 0.15 0.00 87 1046.5
20260505061957 55 143 2.0 8.0 0.00 0.15 0.00 87 1046.5
20260505061836 55 141 2.0 8.0 0.00 0.15 0.00 87 1046.5
20260505061828 55 143 2.0 8.0 0.00 0.15 0.00 87 1046.5
20260505061820 55 141 2.0 10.0 0.00 0.15 0.00 87 1046.5
20260505061752 55 141 2.0 10.0 0.00 0.15 0.00 87 1046.4
20260505061522 55 219 2.0 10.0 0.00 0.15 0.00 87 1046.4
20260505061247 55 220 2.0 10.0 0.00 0.15 0.00 87 1046.5
20260505061146 55 220 2.0 10.0 0.00 0.15 0.00 87 1046.4
20260505061043 55 148 2.0 10.0 0.00 0.15 0.00 87 1046.4
20260505060941 55 280 2.0 10.0 0.00 0.15 0.00 87 1046.4
20260505060841 55 303 2.0 10.0 0.00 0.15 0.00 87 1046.3
20260505060804 55 303 2.0 10.0 0.00 0.15 0.00 87 1046.3
20260505060741 55 303 2.0 10.0 0.00 0.15 0.00 87 1046.3
20260505060732 55 187 2.0 9.0 0.00 0.15 0.00 87 1046.3
20260505060724 55 187 2.0 9.0 0.00 0.15 0.00 87 1046.3
20260505060718 55 188 3.0 9.0 0.00 0.15 0.00 87 1046.3
20260505060652 55 187 3.0 13.0 0.00 0.15 0.00 87 1046.3
20260505060203 55 302 3.0 13.0 0.00 0.15 0.00 87 1046.2
20260505060151 55 280 3.0 13.0 0.00 0.15 0.00 87 1046.3
20260505060141 55 280 3.0 13.0 0.00 0.15 0.00 87 1046.2
20260505055911 55 280 3.0 13.0 0.00 0.15 0.00 87 1046.2
20260505055902 55 280 3.0 13.0 0.00 0.15 0.00 87 1046.3
20260505055636 55 304 3.0 13.0 0.00 0.15 0.00 88 1046.3
20260505055405 55 226 3.0 13.0 0.00 0.15 0.00 88 1046.3
20260505055357 55 226 3.0 13.0 0.00 0.15 0.00 88 1046.3
20260505055104 54 318 2.0 13.0 0.00 0.15 0.00 89 1046.3
20260505055056 54 350 3.0 13.0 0.00 0.15 0.00 89 1046.3
20260505054804 54 354 2.0 13.0 0.00 0.15 0.00 89 1046.3
20260505054731 54 354 2.0 13.0 0.00 0.15 0.00 89 1046.3